Time,TemperatureF,DewpointF,PressureIn,WindDirection,WindDirectionDegrees,WindSpeedMPH,WindSpeedGustMPH,Humidity,HourlyPrecipIn,Conditions,Clouds,dailyrainin,SolarRadiationWatts/m^2,SoftwareType,DateUTC
2013-02-01 00:00:00,31.7,19.7,29.90,West,268,3.0,6.0,60,0.00,,,0.00,0,TxWx,2013-02-01 05:00:00,
2013-02-01 00:01:00,31.8,19.8,29.90,WSW,247,5.7,7.0,60,0.00,,,0.00,0,TxWx,2013-02-01 05:01:00,
2013-02-01 00:05:00,32.0,19.9,29.90,SW,219,2.3,3.0,60,0.00,,,0.00,0,TxWx,2013-02-01 05:05:00,
2013-02-01 00:06:00,32.0,19.9,29.90,WNW,284,3.8,4.0,60,0.00,,,0.00,0,TxWx,2013-02-01 05:06:00,
2013-02-01 00:07:00,32.0,19.9,29.90,WSW,255,5.3,8.0,60,0.00,,,0.00,0,TxWx,2013-02-01 05:07:00,
2013-02-01 00:10:00,32.0,19.8,29.90,WSW,247,6.4,6.4,60,0.00,,,0.00,0,TxWx,2013-02-01 05:10:00,
2013-02-01 00:11:00,32.0,19.9,29.90,WNW,297,4.6,6.0,60,0.00,,,0.00,0,TxWx,2013-02-01 05:11:00,
2013-02-01 00:12:00,32.0,20.0,29.90,SSW,210,6.4,6.4,60,0.00,,,0.00,0,TxWx,2013-02-01 05:12:00,
2013-02-01 00:15:00,31.9,20.2,29.90,SW,221,1.9,1.9,61,0.00,,,0.00,0,TxWx,2013-02-01 05:15:00,
2013-02-01 00:16:00,32.0,20.3,29.90,SSW,199,3.8,3.8,61,0.00,,,0.00,0,TxWx,2013-02-01 05:16:00,
2013-02-01 00:17:00,32.0,20.1,29.90,West,280,3.8,3.8,61,0.00,,,0.00,0,TxWx,2013-02-01 05:17:00,
2013-02-01 00:21:00,32.0,20.3,29.90,WNW,301,2.6,2.6,61,0.00,,,0.00,0,TxWx,2013-02-01 05:21:00,
2013-02-01 00:22:00,32.0,20.3,29.90,West,262,5.3,5.3,61,0.00,,,0.00,0,TxWx,2013-02-01 05:22:00,
2013-02-01 00:26:00,32.0,20.5,29.90,West,260,3.8,4.0,62,0.00,,,0.00,0,TxWx,2013-02-01 05:26:00,
2013-02-01 00:27:00,32.0,20.5,29.90,WNW,297,5.3,5.3,62,0.00,,,0.00,0,TxWx,2013-02-01 05:27:00,
2013-02-01 00:31:00,32.1,20.7,29.90,WSW,253,7.2,7.2,62,0.00,,,0.00,0,TxWx,2013-02-01 05:31:00,
2013-02-01 00:32:00,32.1,20.7,29.90,West,280,5.3,6.0,62,0.00,,,0.00,0,TxWx,2013-02-01 05:32:00,
2013-02-01 00:36:00,32.2,20.8,29.90,WNW,291,9.1,9.1,62,0.00,,,0.00,0,TxWx,2013-02-01 05:36:00,
2013-02-01 00:37:00,32.3,20.9,29.90,NW,317,1.1,1.1,62,0.00,,,0.00,0,TxWx,2013-02-01 05:37:00,
2013-02-01 00:41:00,32.3,20.8,29.90,WSW,255,5.3,6.0,62,0.00,,,0.00,0,TxWx,2013-02-01 05:41:00,
2013-02-01 00:42:00,32.3,20.8,29.90,WNW,301,2.3,3.0,62,0.00,,,0.00,0,TxWx,2013-02-01 05:42:00,
2013-02-01 00:43:00,32.3,20.9,29.90,West,262,2.6,2.6,62,0.00,,,0.00,0,TxWx,2013-02-01 05:43:00,
2013-02-01 00:46:00,32.5,21.1,29.90,SW,233,3.0,3.0,62,0.00,,,0.00,0,TxWx,2013-02-01 05:46:00,
2013-02-01 00:47:00,32.5,21.1,29.90,WSW,244,3.8,3.8,62,0.00,,,0.00,0,TxWx,2013-02-01 05:47:00,
2013-02-01 00:48:00,32.5,21.0,29.90,WSW,245,6.0,6.0,62,0.00,,,0.00,0,TxWx,2013-02-01 05:48:00,
2013-02-01 00:51:00,32.6,21.0,29.90,WSW,254,5.3,5.3,61,0.00,,,0.00,0,TxWx,2013-02-01 05:51:00,
2013-02-01 00:52:00,32.6,21.0,29.90,WSW,243,4.6,4.6,61,0.00,,,0.00,0,TxWx,2013-02-01 05:52:00,
2013-02-01 00:53:00,32.7,21.0,29.90,WNW,291,6.8,6.8,61,0.00,,,0.00,0,TxWx,2013-02-01 05:53:00,
2013-02-01 00:56:00,32.7,21.0,29.90,West,264,3.0,3.0,61,0.00,,,0.00,0,TxWx,2013-02-01 05:56:00,
2013-02-01 00:57:00,32.7,21.0,29.90,West,273,4.9,4.9,61,0.00,,,0.00,0,TxWx,2013-02-01 05:57:00,
2013-02-01 00:58:00,32.6,21.1,29.90,WNW,284,11.0,12.0,62,0.00,,,0.00,0,TxWx,2013-02-01 05:58:00,
2013-02-01 01:02:00,32.9,21.2,29.90,WSW,256,4.6,4.6,61,0.00,,,0.00,0,TxWx,2013-02-01 06:02:00,
2013-02-01 01:03:00,32.9,21.2,29.90,SW,226,1.5,1.5,61,0.00,,,0.00,0,TxWx,2013-02-01 06:03:00,
2013-02-01 01:07:00,32.8,21.4,29.90,SW,219,3.8,4.0,62,0.00,,,0.00,0,TxWx,2013-02-01 06:07:00,
2013-02-01 01:08:00,33.1,21.4,29.90,WSW,250,3.8,6.0,61,0.00,,,0.00,0,TxWx,2013-02-01 06:08:00,
2013-02-01 01:12:00,32.9,21.3,29.89,West,280,5.3,5.3,61,0.00,,,0.00,0,TxWx,2013-02-01 06:12:00,
2013-02-01 01:13:00,32.9,21.3,29.89,WNW,296,4.9,8.0,61,0.00,,,0.00,0,TxWx,2013-02-01 06:13:00,
2013-02-01 01:17:00,33.2,21.4,29.89,WNW,297,6.0,7.0,61,0.00,,,0.00,0,TxWx,2013-02-01 06:17:00,
2013-02-01 01:18:00,33.2,21.4,29.89,WNW,302,5.3,7.0,61,0.00,,,0.00,0,TxWx,2013-02-01 06:18:00,
2013-02-01 01:23:00,33.3,21.5,29.88,SW,221,3.4,3.4,61,0.00,,,0.00,0,TxWx,2013-02-01 06:23:00,
2013-02-01 01:24:00,33.3,21.6,29.88,West,259,4.2,4.2,61,0.00,,,0.00,0,TxWx,2013-02-01 06:24:00,
2013-02-01 01:28:00,33.6,21.8,29.88,WSW,247,4.2,4.2,61,0.00,,,0.00,0,TxWx,2013-02-01 06:28:00,
2013-02-01 01:29:00,33.6,21.8,29.88,WSW,244,5.3,5.3,61,0.00,,,0.00,0,TxWx,2013-02-01 06:29:00,
2013-02-01 01:33:00,33.7,21.7,29.88,SW,229,4.2,4.2,61,0.00,,,0.00,0,TxWx,2013-02-01 06:33:00,
2013-02-01 01:34:00,33.6,21.7,29.88,SW,214,4.2,4.2,61,0.00,,,0.00,0,TxWx,2013-02-01 06:34:00,
2013-02-01 01:38:00,33.7,21.9,29.88,SW,233,4.9,4.9,61,0.00,,,0.00,0,TxWx,2013-02-01 06:38:00,
2013-02-01 01:39:00,33.9,21.9,29.88,SW,224,5.3,5.3,61,0.00,,,0.00,0,TxWx,2013-02-01 06:39:00,
2013-02-01 01:43:00,33.9,21.9,29.88,West,260,3.0,3.0,60,0.00,,,0.00,0,TxWx,2013-02-01 06:43:00,
2013-02-01 01:44:00,33.9,21.9,29.88,West,260,5.3,5.3,61,0.00,,,0.00,0,TxWx,2013-02-01 06:44:00,
2013-02-01 01:48:00,34.3,22.2,29.88,WSW,248,8.0,8.0,60,0.00,,,0.00,0,TxWx,2013-02-01 06:48:00,
2013-02-01 01:49:00,34.3,22.1,29.88,SSW,206,5.3,5.3,60,0.00,,,0.00,0,TxWx,2013-02-01 06:49:00,
2013-02-01 01:53:00,34.3,22.3,29.87,WSW,239,3.0,3.0,61,0.00,,,0.00,0,TxWx,2013-02-01 06:53:00,
2013-02-01 01:54:00,34.3,22.3,29.87,WSW,253,4.6,6.0,61,0.00,,,0.00,0,TxWx,2013-02-01 06:54:00,
2013-02-01 01:58:00,34.4,22.8,29.87,West,270,3.8,4.0,61,0.00,,,0.00,0,TxWx,2013-02-01 06:58:00,
2013-02-01 01:59:00,34.4,22.8,29.87,WNW,300,6.0,6.0,61,0.00,,,0.00,0,TxWx,2013-02-01 06:59:00,
2013-02-01 02:00:00,34.3,22.7,29.87,West,266,9.1,11.0,62,0.00,,,0.00,0,TxWx,2013-02-01 07:00:00,
2013-02-01 02:04:00,34.4,22.8,29.87,WSW,255,5.3,6.0,62,0.00,,,0.00,0,TxWx,2013-02-01 07:04:00,
2013-02-01 02:05:00,34.4,22.8,29.87,West,278,3.8,4.0,62,0.00,,,0.00,0,TxWx,2013-02-01 07:05:00,
2013-02-01 02:09:00,34.5,22.9,29.87,NW,325,9.5,9.5,62,0.00,,,0.00,0,TxWx,2013-02-01 07:09:00,
2013-02-01 02:10:00,34.5,23.0,29.87,SW,215,5.3,8.0,62,0.00,,,0.00,0,TxWx,2013-02-01 07:10:00,
2013-02-01 02:14:00,34.6,23.3,29.87,WSW,243,4.2,4.2,62,0.00,,,0.00,0,TxWx,2013-02-01 07:14:00,
2013-02-01 02:15:00,34.6,23.4,29.87,WSW,251,6.4,6.4,63,0.00,,,0.00,0,TxWx,2013-02-01 07:15:00,
2013-02-01 02:19:00,34.5,23.4,29.87,West,277,5.7,6.0,63,0.00,,,0.00,0,TxWx,2013-02-01 07:19:00,
2013-02-01 02:20:00,34.4,23.5,29.87,WSW,250,9.9,12.0,64,0.00,,,0.00,0,TxWx,2013-02-01 07:20:00,
2013-02-01 02:24:00,34.4,23.9,29.86,SSW,205,3.4,4.0,64,0.00,,,0.00,0,TxWx,2013-02-01 07:24:00,
2013-02-01 02:25:00,34.4,23.9,29.86,NW,324,6.8,6.8,65,0.00,,,0.00,0,TxWx,2013-02-01 07:25:00,
2013-02-01 02:26:00,34.5,23.9,29.86,West,267,4.2,4.2,64,0.00,,,0.00,0,TxWx,2013-02-01 07:26:00,
2013-02-01 02:29:00,34.5,23.9,29.86,West,270,10.2,10.2,64,0.00,,,0.00,0,TxWx,2013-02-01 07:29:00,
2013-02-01 02:31:00,34.6,24.0,29.86,West,270,4.9,6.0,64,0.00,,,0.00,0,TxWx,2013-02-01 07:31:00,
2013-02-01 02:34:00,34.6,24.0,29.86,WSW,238,8.4,9.0,64,0.00,,,0.00,0,TxWx,2013-02-01 07:34:00,
2013-02-01 02:36:00,34.6,24.1,29.86,SW,231,3.4,4.0,64,0.00,,,0.00,0,TxWx,2013-02-01 07:36:00,
2013-02-01 02:39:00,34.7,24.1,29.86,WNW,303,6.0,6.0,64,0.00,,,0.00,0,TxWx,2013-02-01 07:39:00,
2013-02-01 02:40:00,34.6,24.1,29.86,WSW,257,4.6,4.6,65,0.00,,,0.00,0,TxWx,2013-02-01 07:40:00,
2013-02-01 02:41:00,34.6,24.2,29.86,SW,225,3.8,3.8,65,0.00,,,0.00,0,TxWx,2013-02-01 07:41:00,
2013-02-01 02:44:00,34.5,24.3,29.86,SW,230,4.2,4.2,65,0.00,,,0.00,0,TxWx,2013-02-01 07:44:00,
2013-02-01 02:45:00,34.5,24.3,29.86,WSW,252,6.8,7.0,65,0.00,,,0.00,0,TxWx,2013-02-01 07:45:00,
2013-02-01 02:46:00,34.4,24.4,29.86,SW,230,4.6,6.0,66,0.00,,,0.00,0,TxWx,2013-02-01 07:46:00,
2013-02-01 02:50:00,34.4,24.7,29.86,WSW,246,8.7,8.7,67,0.00,,,0.00,0,TxWx,2013-02-01 07:50:00,
2013-02-01 02:51:00,34.5,24.7,29.86,WSW,247,7.6,8.0,67,0.00,,,0.00,0,TxWx,2013-02-01 07:51:00,
2013-02-01 02:52:00,34.5,24.7,29.86,West,274,5.7,6.0,67,0.00,,,0.00,0,TxWx,2013-02-01 07:52:00,
2013-02-01 02:55:00,34.5,24.8,29.86,WNW,302,6.8,6.8,67,0.00,,,0.00,0,TxWx,2013-02-01 07:55:00,
2013-02-01 02:56:00,34.5,24.8,29.86,NW,313,5.7,5.7,67,0.00,,,0.00,0,TxWx,2013-02-01 07:56:00,
2013-02-01 02:57:00,34.4,24.8,29.86,West,276,9.9,9.9,67,0.00,,,0.00,0,TxWx,2013-02-01 07:57:00,
2013-02-01 03:00:00,34.4,25.0,29.85,West,280,4.9,6.0,68,0.00,,,0.00,0,TxWx,2013-02-01 08:00:00,
2013-02-01 03:01:00,34.5,24.9,29.85,WSW,247,4.6,4.6,67,0.00,,,0.00,0,TxWx,2013-02-01 08:01:00,
2013-02-01 03:02:00,34.4,24.9,29.85,West,272,9.9,11.0,67,0.00,,,0.00,0,TxWx,2013-02-01 08:02:00,
2013-02-01 03:05:00,34.4,25.0,29.86,WSW,256,5.3,5.3,68,0.00,,,0.00,0,TxWx,2013-02-01 08:05:00,
2013-02-01 03:06:00,34.3,25.0,29.86,West,276,10.2,10.2,68,0.00,,,0.00,0,TxWx,2013-02-01 08:06:00,
2013-02-01 03:07:00,34.3,25.0,29.86,WSW,245,6.0,6.0,68,0.00,,,0.00,0,TxWx,2013-02-01 08:07:00,
2013-02-01 03:10:00,34.3,25.0,29.86,WSW,245,6.8,8.0,68,0.00,,,0.00,0,TxWx,2013-02-01 08:10:00,
2013-02-01 03:12:00,34.3,25.1,29.86,SSW,211,6.8,9.0,68,0.00,,,0.00,0,TxWx,2013-02-01 08:12:00,
2013-02-01 03:15:00,34.2,25.1,29.86,West,262,6.0,9.0,68,0.00,,,0.00,0,TxWx,2013-02-01 08:15:00,
2013-02-01 03:17:00,34.2,25.1,29.85,SSW,213,5.3,7.0,68,0.00,,,0.00,0,TxWx,2013-02-01 08:17:00,
2013-02-01 03:21:00,34.2,25.2,29.86,SW,220,4.9,5.0,69,0.00,,,0.00,0,TxWx,2013-02-01 08:21:00,
2013-02-01 03:22:00,34.1,25.1,29.85,SW,224,6.8,8.0,69,0.00,,,0.00,0,TxWx,2013-02-01 08:22:00,
2013-02-01 03:23:00,34.1,25.1,29.85,WSW,247,12.2,12.2,69,0.00,,,0.00,0,TxWx,2013-02-01 08:23:00,
2013-02-01 03:26:00,34.0,25.1,29.85,WNW,291,8.7,9.0,69,0.00,,,0.00,0,TxWx,2013-02-01 08:26:00,
2013-02-01 03:27:00,34.0,25.1,29.85,SW,232,4.6,4.6,69,0.00,,,0.00,0,TxWx,2013-02-01 08:27:00,
2013-02-01 03:28:00,33.9,25.2,29.85,West,265,8.0,10.0,70,0.00,,,0.00,0,TxWx,2013-02-01 08:28:00,
2013-02-01 03:31:00,33.9,25.2,29.85,WNW,288,5.3,5.3,70,0.00,,,0.00,0,TxWx,2013-02-01 08:31:00,
2013-02-01 03:32:00,33.8,25.1,29.85,WNW,288,5.3,5.3,69,0.00,,,0.00,0,TxWx,2013-02-01 08:32:00,
2013-02-01 03:33:00,33.9,25.1,29.85,West,276,5.7,8.0,69,0.00,,,0.00,0,TxWx,2013-02-01 08:33:00,
2013-02-01 03:36:00,33.9,25.0,29.85,WSW,247,5.7,5.7,69,0.00,,,0.00,0,TxWx,2013-02-01 08:36:00,
2013-02-01 03:37:00,33.8,25.0,29.85,NW,313,10.6,10.6,69,0.00,,,0.00,0,TxWx,2013-02-01 08:37:00,
2013-02-01 03:38:00,33.8,25.0,29.85,WSW,242,6.0,7.0,69,0.00,,,0.00,0,TxWx,2013-02-01 08:38:00,
2013-02-01 03:41:00,33.4,25.2,29.85,WNW,303,4.6,5.0,71,0.00,,,0.00,0,TxWx,2013-02-01 08:41:00,
2013-02-01 03:42:00,33.2,25.4,29.85,SSW,201,6.8,9.0,72,0.00,,,0.00,0,TxWx,2013-02-01 08:42:00,
2013-02-01 03:43:00,33.2,25.4,29.85,West,268,11.0,12.0,72,0.00,,,0.00,0,TxWx,2013-02-01 08:43:00,
2013-02-01 03:46:00,32.1,25.5,29.86,WNW,297,11.8,12.0,76,0.00,,,0.00,0,TxWx,2013-02-01 08:46:00,
2013-02-01 03:47:00,32.2,26.0,29.86,WNW,290,8.0,8.0,77,0.00,,,0.00,0,TxWx,2013-02-01 08:47:00,
2013-02-01 03:48:00,32.2,26.0,29.86,SW,230,6.0,6.0,77,0.00,,,0.00,0,TxWx,2013-02-01 08:48:00,
2013-02-01 03:52:00,31.7,26.3,29.86,SW,224,2.6,3.0,80,0.00,,,0.00,0,TxWx,2013-02-01 08:52:00,
2013-02-01 03:53:00,31.6,26.4,29.86,WNW,303,4.2,4.2,80,0.00,,,0.00,0,TxWx,2013-02-01 08:53:00,
2013-02-01 03:54:00,31.4,26.5,29.86,WSW,238,5.3,6.0,81,0.00,,,0.00,0,TxWx,2013-02-01 08:54:00,
2013-02-01 03:57:00,31.0,26.9,29.86,WNW,289,6.4,6.4,84,0.00,,,0.00,0,TxWx,2013-02-01 08:57:00,
2013-02-01 03:58:00,31.0,26.9,29.86,West,275,4.6,5.0,84,0.00,,,0.00,0,TxWx,2013-02-01 08:58:00,
2013-02-01 03:59:00,30.9,26.9,29.86,NNW,334,0.3,0.0,85,0.00,,,0.00,0,TxWx,2013-02-01 08:59:00,
2013-02-01 04:02:00,30.6,27.0,29.86,WSW,241,2.6,2.6,86,0.00,,,0.00,0,TxWx,2013-02-01 09:02:00,
2013-02-01 04:03:00,30.6,27.0,29.86,SW,230,3.0,3.0,86,0.00,,,0.00,0,TxWx,2013-02-01 09:03:00,
2013-02-01 04:04:00,30.5,27.0,29.86,West,269,6.8,6.8,86,0.00,,,0.00,0,TxWx,2013-02-01 09:04:00,
2013-02-01 04:07:00,30.3,27.1,29.86,West,276,3.8,3.8,87,0.00,,,0.00,0,TxWx,2013-02-01 09:07:00,
2013-02-01 04:08:00,30.3,27.1,29.86,WSW,243,6.4,8.0,87,0.00,,,0.00,0,TxWx,2013-02-01 09:08:00,
2013-02-01 04:09:00,30.4,27.3,29.86,WNW,290,3.4,3.4,88,0.00,,,0.00,0,TxWx,2013-02-01 09:09:00,
2013-02-01 04:12:00,30.5,27.1,29.86,SSW,200,3.0,3.0,87,0.00,,,0.00,0,TxWx,2013-02-01 09:12:00,
2013-02-01 04:13:00,30.5,27.2,29.86,West,278,2.3,2.3,87,0.00,,,0.00,0,TxWx,2013-02-01 09:13:00,
2013-02-01 04:14:00,30.4,27.2,29.86,WSW,253,4.6,4.6,87,0.00,,,0.00,0,TxWx,2013-02-01 09:14:00,
2013-02-01 04:18:00,30.0,27.2,29.86,WNW,294,2.3,2.3,89,0.00,,,0.00,0,TxWx,2013-02-01 09:18:00,
2013-02-01 04:19:00,30.0,27.3,29.87,WSW,243,3.0,3.0,89,0.00,,,0.00,0,TxWx,2013-02-01 09:19:00,
2013-02-01 04:23:00,29.5,27.4,29.87,WSW,251,3.0,3.0,91,0.00,,,0.00,0,TxWx,2013-02-01 09:23:00,
2013-02-01 04:24:00,29.3,27.3,29.87,WNW,301,2.6,3.0,92,0.00,,,0.00,0,TxWx,2013-02-01 09:24:00,
2013-02-01 04:25:00,29.3,27.4,29.87,West,271,3.4,5.0,92,0.00,,,0.00,0,TxWx,2013-02-01 09:25:00,
2013-02-01 04:28:00,28.9,27.4,29.88,WNW,288,0.7,0.0,94,0.00,,,0.00,0,TxWx,2013-02-01 09:28:00,
2013-02-01 04:29:00,28.9,27.5,29.88,WNW,303,1.1,1.1,94,0.00,,,0.00,0,TxWx,2013-02-01 09:29:00,
2013-02-01 04:30:00,28.7,27.5,29.88,SW,220,3.0,3.0,95,0.00,,,0.00,0,TxWx,2013-02-01 09:30:00,
2013-02-01 04:33:00,28.4,27.6,29.88,West,266,4.9,5.0,96,0.00,,,0.00,0,TxWx,2013-02-01 09:33:00,
2013-02-01 04:35:00,28.3,27.7,29.88,WSW,252,3.0,3.0,97,0.00,,,0.00,0,TxWx,2013-02-01 09:35:00,
2013-02-01 04:38:00,28.1,27.7,29.88,SW,236,3.4,3.4,98,0.00,,,0.00,0,TxWx,2013-02-01 09:38:00,
2013-02-01 04:40:00,28.0,27.7,29.88,WNW,289,3.8,3.8,98,0.00,,,0.00,0,TxWx,2013-02-01 09:40:00,
2013-02-01 04:41:00,27.9,27.6,29.88,WSW,254,4.9,4.9,99,0.00,,,0.00,0,TxWx,2013-02-01 09:41:00,
2013-02-01 04:43:00,27.8,27.7,29.88,SW,225,3.8,3.8,99,0.00,,,0.00,0,TxWx,2013-02-01 09:43:00,
2013-02-01 04:44:00,27.8,27.7,29.88,SW,221,3.4,3.4,99,0.00,,,0.00,0,TxWx,2013-02-01 09:44:00,
2013-02-01 04:45:00,27.8,27.7,29.88,WSW,244,1.9,2.0,99,0.00,,,0.00,0,TxWx,2013-02-01 09:45:00,
2013-02-01 04:46:00,27.8,27.8,29.88,WSW,256,3.4,3.4,99,0.00,,,0.00,0,TxWx,2013-02-01 09:46:00,
2013-02-01 04:48:00,27.6,27.6,29.88,West,272,0.7,1.0,100,0.00,,,0.00,0,TxWx,2013-02-01 09:48:00,
2013-02-01 04:49:00,27.7,27.7,29.88,SW,228,2.3,2.3,100,0.00,,,0.00,0,TxWx,2013-02-01 09:49:00,
2013-02-01 04:50:00,27.6,27.6,29.88,SSW,213,2.3,2.3,100,0.00,,,0.00,0,TxWx,2013-02-01 09:50:00,
2013-02-01 04:51:00,27.6,27.6,29.88,South,188,1.9,2.0,100,0.00,,,0.00,0,TxWx,2013-02-01 09:51:00,
2013-02-01 04:53:00,27.4,27.4,29.88,WSW,247,3.0,3.0,100,0.00,,,0.00,0,TxWx,2013-02-01 09:53:00,
2013-02-01 04:54:00,27.3,27.3,29.88,SE,124,5.3,5.3,100,0.00,,,0.00,0,TxWx,2013-02-01 09:54:00,
2013-02-01 04:55:00,27.3,27.3,29.88,SSW,204,2.3,2.3,100,0.00,,,0.00,0,TxWx,2013-02-01 09:55:00,
2013-02-01 04:56:00,27.3,27.3,29.88,WSW,250,4.2,4.2,100,0.00,,,0.00,0,TxWx,2013-02-01 09:56:00,
2013-02-01 04:58:00,27.4,27.4,29.88,WNW,284,1.5,1.5,100,0.00,,,0.00,0,TxWx,2013-02-01 09:58:00,
2013-02-01 04:59:00,27.3,27.3,29.88,WSW,258,4.2,4.2,100,0.00,,,0.00,0,TxWx,2013-02-01 09:59:00,
2013-02-01 05:00:00,27.3,27.3,29.88,West,279,2.6,2.6,100,0.00,,,0.00,0,TxWx,2013-02-01 10:00:00,
2013-02-01 05:01:00,27.3,27.3,29.88,WNW,288,5.3,5.3,100,0.00,,,0.00,0,TxWx,2013-02-01 10:01:00,
2013-02-01 05:04:00,27.4,27.3,29.88,WSW,245,3.4,3.4,99,0.00,,,0.00,0,TxWx,2013-02-01 10:04:00,
2013-02-01 05:05:00,27.4,27.2,29.88,South,176,3.4,3.4,99,0.00,,,0.00,0,TxWx,2013-02-01 10:05:00,
2013-02-01 05:06:00,27.4,27.2,29.88,West,275,4.2,4.2,99,0.00,,,0.00,0,TxWx,2013-02-01 10:06:00,
2013-02-01 05:09:00,27.3,26.8,29.88,WSW,243,4.2,4.2,97,0.00,,,0.00,0,TxWx,2013-02-01 10:09:00,
2013-02-01 05:10:00,27.3,26.7,29.88,SSW,209,4.2,5.0,97,0.00,,,0.00,0,TxWx,2013-02-01 10:10:00,
2013-02-01 05:11:00,27.2,26.4,29.88,West,260,6.8,7.0,96,0.00,,,0.00,0,TxWx,2013-02-01 10:11:00,
2013-02-01 05:14:00,27.2,25.2,29.89,WSW,253,5.3,5.3,92,0.00,,,0.00,0,TxWx,2013-02-01 10:14:00,
2013-02-01 05:15:00,27.3,25.2,29.88,West,277,4.6,6.0,91,0.00,,,0.00,0,TxWx,2013-02-01 10:15:00,
2013-02-01 05:16:00,27.3,25.0,29.89,WSW,237,3.0,3.0,90,0.00,,,0.00,0,TxWx,2013-02-01 10:16:00,
2013-02-01 05:19:00,27.5,25.0,29.89,NNE,12,1.5,1.5,90,0.00,,,0.00,0,TxWx,2013-02-01 10:19:00,
2013-02-01 05:20:00,27.5,24.8,29.89,SW,231,1.9,2.0,89,0.00,,,0.00,0,TxWx,2013-02-01 10:20:00,
2013-02-01 05:22:00,27.4,24.4,29.90,SW,235,1.1,1.1,88,0.00,,,0.00,0,TxWx,2013-02-01 10:22:00,
2013-02-01 05:24:00,27.4,23.9,29.90,West,269,2.3,2.3,86,0.00,,,0.00,0,TxWx,2013-02-01 10:24:00,
2013-02-01 05:25:00,27.4,23.9,29.90,SW,228,3.0,3.0,86,0.00,,,0.00,0,TxWx,2013-02-01 10:25:00,
2013-02-01 05:27:00,27.3,23.4,29.90,West,278,5.7,6.0,85,0.00,,,0.00,0,TxWx,2013-02-01 10:27:00,
2013-02-01 05:30:00,27.1,22.1,29.90,WNW,291,3.8,4.0,81,0.00,,,0.00,0,TxWx,2013-02-01 10:30:00,
2013-02-01 05:31:00,27.0,21.9,29.90,WSW,247,4.9,4.9,80,0.00,,,0.00,0,TxWx,2013-02-01 10:31:00,
2013-02-01 05:32:00,27.1,21.7,29.90,SW,231,2.6,2.6,79,0.00,,,0.00,0,TxWx,2013-02-01 10:32:00,
2013-02-01 05:35:00,27.1,20.6,29.90,WNW,295,5.3,6.0,76,0.00,,,0.00,0,TxWx,2013-02-01 10:35:00,
2013-02-01 05:36:00,27.1,20.0,29.90,West,273,5.7,6.0,74,0.00,,,0.00,0,TxWx,2013-02-01 10:36:00,
2013-02-01 05:37:00,27.3,19.2,29.90,SW,224,3.4,4.0,71,0.00,,,0.00,0,TxWx,2013-02-01 10:37:00,
2013-02-01 05:40:00,27.1,15.8,29.90,WSW,238,5.7,5.7,62,0.00,,,0.00,0,TxWx,2013-02-01 10:40:00,
2013-02-01 05:41:00,27.0,15.6,29.91,West,277,3.4,3.4,61,0.00,,,0.00,0,TxWx,2013-02-01 10:41:00,
2013-02-01 05:42:00,26.9,14.7,29.91,SSW,213,10.2,10.2,59,0.00,,,0.00,0,TxWx,2013-02-01 10:42:00,
2013-02-01 05:45:00,26.6,12.5,29.91,SW,229,4.9,4.9,54,0.00,,,0.00,0,TxWx,2013-02-01 10:45:00,
2013-02-01 05:46:00,26.6,10.8,29.91,WNW,289,5.7,6.0,50,0.00,,,0.00,0,TxWx,2013-02-01 10:46:00,
2013-02-01 05:48:00,26.4,9.9,29.91,SW,232,7.2,8.0,49,0.00,,,0.00,0,TxWx,2013-02-01 10:48:00,
2013-02-01 05:50:00,26.2,10.3,29.91,SW,219,6.4,6.4,50,0.00,,,0.00,0,TxWx,2013-02-01 10:50:00,
2013-02-01 05:51:00,25.9,9.6,29.92,SW,232,4.9,7.0,49,0.00,,,0.00,0,TxWx,2013-02-01 10:51:00,
2013-02-01 05:53:00,25.9,9.3,29.92,WNW,298,8.7,8.7,48,0.00,,,0.00,0,TxWx,2013-02-01 10:53:00,
2013-02-01 05:55:00,25.6,9.2,29.92,WSW,248,6.0,8.0,49,0.00,,,0.00,0,TxWx,2013-02-01 10:55:00,
2013-02-01 05:56:00,25.5,8.9,29.92,South,177,3.8,4.0,48,0.00,,,0.00,0,TxWx,2013-02-01 10:56:00,
2013-02-01 05:58:00,25.4,7.9,29.92,WNW,289,7.2,7.2,46,0.00,,,0.00,0,TxWx,2013-02-01 10:58:00,
2013-02-01 06:00:00,25.2,6.8,29.92,WSW,258,5.3,5.3,44,0.00,,,0.00,0,TxWx,2013-02-01 11:00:00,
2013-02-01 06:01:00,25.2,6.0,29.92,SW,231,4.9,5.0,43,0.00,,,0.00,0,TxWx,2013-02-01 11:01:00,
2013-02-01 06:03:00,25.0,6.8,29.92,WSW,253,8.0,8.0,45,0.00,,,0.00,0,TxWx,2013-02-01 11:03:00,
2013-02-01 06:05:00,24.6,5.3,29.93,SW,229,4.6,4.6,43,0.00,,,0.00,0,TxWx,2013-02-01 11:05:00,
2013-02-01 06:06:00,24.6,5.3,29.93,SW,236,10.6,10.6,43,0.00,,,0.00,0,TxWx,2013-02-01 11:06:00,
2013-02-01 06:08:00,24.5,4.8,29.93,SSW,210,8.4,8.4,42,0.00,,,0.00,0,TxWx,2013-02-01 11:08:00,
2013-02-01 06:10:00,24.3,4.8,29.93,SW,229,4.6,4.6,42,0.00,,,0.00,0,TxWx,2013-02-01 11:10:00,
2013-02-01 06:11:00,24.3,5.0,29.93,SSW,206,3.4,3.4,42,0.00,,,0.00,0,TxWx,2013-02-01 11:11:00,
2013-02-01 06:13:00,24.1,5.5,29.93,SSW,212,4.9,4.9,44,0.00,,,0.00,0,TxWx,2013-02-01 11:13:00,
2013-02-01 06:16:00,23.9,5.3,29.94,West,275,2.3,2.3,44,0.00,,,0.00,0,TxWx,2013-02-01 11:16:00,
2013-02-01 06:19:00,23.6,5.5,29.94,SSW,203,3.8,3.8,45,0.00,,,0.00,0,TxWx,2013-02-01 11:19:00,
2013-02-01 06:21:00,23.5,5.0,29.94,WSW,247,5.3,5.3,44,0.00,,,0.00,0,TxWx,2013-02-01 11:21:00,
2013-02-01 06:24:00,23.4,4.2,29.95,WSW,246,7.2,7.2,42,0.00,,,0.00,0,TxWx,2013-02-01 11:24:00,
2013-02-01 06:26:00,23.3,3.8,29.95,SSW,211,1.9,1.9,42,0.00,,,0.00,0,TxWx,2013-02-01 11:26:00,
2013-02-01 06:27:00,23.3,4.2,29.95,SSE,164,3.0,3.0,43,0.00,,,0.00,0,TxWx,2013-02-01 11:27:00,
2013-02-01 06:29:00,23.0,4.3,29.95,WSW,239,3.4,4.0,43,0.00,,,0.00,0,TxWx,2013-02-01 11:29:00,
2013-02-01 06:31:00,22.9,4.0,29.96,West,262,3.0,3.0,43,0.00,,,0.00,0,TxWx,2013-02-01 11:31:00,
2013-02-01 06:32:00,22.9,4.2,29.96,SW,233,3.0,3.0,43,0.00,,,0.00,0,TxWx,2013-02-01 11:32:00,
2013-02-01 06:34:00,22.7,5.1,29.96,NNW,336,0.7,0.0,46,0.00,,,0.00,0,TxWx,2013-02-01 11:34:00,
2013-02-01 06:36:00,22.5,5.8,29.96,WSW,238,2.3,2.3,48,0.00,,,0.00,0,TxWx,2013-02-01 11:36:00,
2013-02-01 06:37:00,22.5,6.0,29.96,NNW,344,0.7,0.0,48,0.00,,,0.00,0,TxWx,2013-02-01 11:37:00,
2013-02-01 06:39:00,22.2,6.2,29.96,WSW,243,0.7,1.0,49,0.00,,,0.00,0,TxWx,2013-02-01 11:39:00,
2013-02-01 06:41:00,22.1,5.8,29.97,WSW,253,1.1,1.1,48,0.00,,,0.00,0,TxWx,2013-02-01 11:41:00,
2013-02-01 06:42:00,22.1,5.8,29.97,WSW,251,1.9,2.0,49,0.00,,,0.00,0,TxWx,2013-02-01 11:42:00,
2013-02-01 06:44:00,22.0,5.6,29.97,West,263,2.6,3.0,48,0.00,,,0.00,0,TxWx,2013-02-01 11:44:00,
2013-02-01 06:47:00,21.9,4.8,29.97,West,265,0.7,1.0,47,0.00,,,0.00,0,TxWx,2013-02-01 11:47:00,
2013-02-01 06:49:00,21.7,3.7,29.97,West,267,4.2,4.2,45,0.00,,,0.00,0,TxWx,2013-02-01 11:49:00,
2013-02-01 06:52:00,21.5,4.0,29.97,SW,236,1.1,1.1,46,0.00,,,0.00,0,TxWx,2013-02-01 11:52:00,
2013-02-01 06:54:00,21.5,3.3,29.97,SSW,195,2.6,2.6,44,0.00,,,0.00,0,TxWx,2013-02-01 11:54:00,
2013-02-01 06:57:00,21.5,3.4,29.97,WSW,255,1.1,1.1,44,0.00,,,0.00,0,TxWx,2013-02-01 11:57:00,
2013-02-01 06:59:00,21.2,3.8,29.98,SSW,212,2.3,2.3,46,0.00,,,0.00,0,TxWx,2013-02-01 11:59:00,
2013-02-01 07:02:00,21.2,3.3,29.98,West,275,1.9,1.9,45,0.00,,,0.00,0,TxWx,2013-02-01 12:02:00,
2013-02-01 07:04:00,21.0,2.1,29.98,WSW,258,3.8,3.8,43,0.00,,,0.00,0,TxWx,2013-02-01 12:04:00,
2013-02-01 07:07:00,20.9,1.4,29.98,West,265,0.7,0.0,41,0.00,,,0.00,0,TxWx,2013-02-01 12:07:00,
2013-02-01 07:10:00,20.8,0.7,29.98,WSW,237,1.9,1.9,40,0.00,,,0.00,0,TxWx,2013-02-01 12:10:00,
2013-02-01 07:12:00,20.7,0.4,29.98,WSW,253,1.9,2.0,40,0.00,,,0.00,0,TxWx,2013-02-01 12:12:00,
2013-02-01 07:13:00,20.5,0.5,29.99,WNW,302,0.7,1.0,40,0.00,,,0.00,0,TxWx,2013-02-01 12:13:00,
2013-02-01 07:15:00,20.4,1.0,29.98,WNW,298,2.3,2.3,42,0.00,,,0.00,0,TxWx,2013-02-01 12:15:00,
2013-02-01 07:17:00,20.4,0.9,29.99,West,266,0.3,0.0,41,0.00,,,0.00,0,TxWx,2013-02-01 12:17:00,
2013-02-01 07:18:00,20.3,0.8,29.99,West,260,0.7,1.0,41,0.00,,,0.00,0,TxWx,2013-02-01 12:18:00,
2013-02-01 07:21:00,20.1,0.0,29.99,East,88,1.5,1.5,40,0.00,,,0.00,0,TxWx,2013-02-01 12:21:00,
2013-02-01 07:22:00,20.2,-0.2,29.99,SW,215,0.7,1.0,40,0.00,,,0.00,0,TxWx,2013-02-01 12:22:00,
2013-02-01 07:23:00,20.1,-0.1,29.99,SW,233,3.8,3.8,40,0.00,,,0.00,0,TxWx,2013-02-01 12:23:00,
2013-02-01 07:26:00,20.0,0.8,29.99,West,262,3.0,3.0,42,0.00,,,0.00,0,TxWx,2013-02-01 12:26:00,
2013-02-01 07:27:00,20.0,0.1,29.99,East,93,0.7,0.0,40,0.00,,,0.00,0,TxWx,2013-02-01 12:27:00,
2013-02-01 07:28:00,20.1,0.0,29.99,South,179,0.3,0.0,40,0.00,,,0.00,0,TxWx,2013-02-01 12:28:00,
2013-02-01 07:31:00,19.8,0.0,30.00,West,270,4.6,4.6,41,0.00,,,0.00,0,TxWx,2013-02-01 12:31:00,
2013-02-01 07:32:00,19.7,-0.5,30.00,SW,224,1.5,2.0,40,0.00,,,0.00,0,TxWx,2013-02-01 12:32:00,
2013-02-01 07:33:00,19.6,-0.3,30.00,SW,219,1.1,1.1,40,0.00,,,0.00,0,TxWx,2013-02-01 12:33:00,
2013-02-01 07:36:00,19.5,-0.6,30.00,WSW,242,3.8,0.0,40,0.00,,,0.00,0,TxWx,2013-02-01 12:36:00,
2013-02-01 07:37:00,19.6,-0.8,30.00,West,270,0.7,0.0,39,0.00,,,0.00,0,TxWx,2013-02-01 12:37:00,
2013-02-01 07:38:00,19.6,-0.8,30.00,WNW,282,1.1,1.1,39,0.00,,,0.00,0,TxWx,2013-02-01 12:38:00,
2013-02-01 07:42:00,19.4,-0.7,30.00,WNW,303,1.1,1.1,40,0.00,,,0.00,0,TxWx,2013-02-01 12:42:00,
2013-02-01 07:43:00,19.3,-0.5,30.00,SSW,195,1.1,1.1,41,0.00,,,0.00,0,TxWx,2013-02-01 12:43:00,
2013-02-01 07:47:00,19.0,-0.2,30.01,West,269,0.3,0.0,42,0.00,,,0.00,0,TxWx,2013-02-01 12:47:00,
2013-02-01 07:48:00,19.0,-0.3,30.01,West,259,6.0,6.0,42,0.00,,,0.00,0,TxWx,2013-02-01 12:48:00,
2013-02-01 07:52:00,18.9,-0.1,30.01,WSW,258,2.3,3.0,42,0.00,,,0.00,0,TxWx,2013-02-01 12:52:00,
2013-02-01 07:53:00,18.8,-0.1,30.01,ENE,71,0.3,0.0,42,0.00,,,0.00,0,TxWx,2013-02-01 12:53:00,
2013-02-01 07:54:00,18.8,-0.1,30.01,South,180,3.4,3.4,42,0.00,,,0.00,0,TxWx,2013-02-01 12:54:00,
2013-02-01 07:57:00,18.7,-0.7,30.01,WSW,244,1.1,1.1,41,0.00,,,0.00,0,TxWx,2013-02-01 12:57:00,
2013-02-01 07:58:00,18.8,-0.5,30.01,SW,223,2.6,3.0,42,0.00,,,0.00,0,TxWx,2013-02-01 12:58:00,
2013-02-01 07:59:00,18.7,-0.7,30.01,WNW,287,3.0,3.0,41,0.00,,,0.00,0,TxWx,2013-02-01 12:59:00,
2013-02-01 08:02:00,18.6,-0.3,30.01,WSW,239,1.1,1.1,42,0.00,,,0.00,0,TxWx,2013-02-01 13:02:00,
2013-02-01 08:03:00,18.5,0.0,30.02,WNW,303,1.9,1.9,43,0.00,,,0.00,0,TxWx,2013-02-01 13:03:00,
2013-02-01 08:04:00,18.4,-0.2,30.02,West,269,1.1,1.1,43,0.00,,,0.00,0,TxWx,2013-02-01 13:04:00,
2013-02-01 08:07:00,18.3,-0.2,30.02,West,281,1.5,1.5,43,0.00,,,0.00,0,TxWx,2013-02-01 13:07:00,
2013-02-01 08:08:00,18.3,-0.1,30.02,WNW,297,0.3,0.0,43,0.00,,,0.00,0,TxWx,2013-02-01 13:08:00,
2013-02-01 08:09:00,18.2,-0.2,30.02,WSW,253,1.5,1.5,43,0.00,,,0.00,0,TxWx,2013-02-01 13:09:00,
2013-02-01 08:12:00,18.1,0.1,30.02,WNW,298,0.0,0.0,44,0.00,,,0.00,0,TxWx,2013-02-01 13:12:00,
2013-02-01 08:13:00,18.0,0.4,30.02,WNW,300,0.0,0.0,45,0.00,,,0.00,0,TxWx,2013-02-01 13:13:00,
2013-02-01 08:14:00,18.0,1.1,30.02,NNE,27,0.0,0.0,46,0.00,,,0.00,0,TxWx,2013-02-01 13:14:00,
2013-02-01 08:17:00,18.0,2.1,30.02,SW,225,0.7,0.0,49,0.00,,,0.00,0,TxWx,2013-02-01 13:17:00,
2013-02-01 08:18:00,17.6,2.9,30.02,West,270,1.9,1.9,51,0.00,,,0.00,0,TxWx,2013-02-01 13:18:00,
2013-02-01 08:19:00,17.2,3.6,30.02,WSW,248,2.3,2.3,54,0.00,,,0.00,0,TxWx,2013-02-01 13:19:00,
2013-02-01 08:22:00,17.0,4.5,30.03,SW,225,1.1,1.1,57,0.00,,,0.00,0,TxWx,2013-02-01 13:22:00,
2013-02-01 08:24:00,16.7,4.6,30.03,SSW,201,1.1,1.1,58,0.00,,,0.00,0,TxWx,2013-02-01 13:24:00,
2013-02-01 08:27:00,16.7,4.8,30.03,SSW,202,1.9,2.0,58,0.00,,,0.00,0,TxWx,2013-02-01 13:27:00,
2013-02-01 08:29:00,16.6,4.9,30.03,SSE,153,0.7,1.0,59,0.00,,,0.00,0,TxWx,2013-02-01 13:29:00,
2013-02-01 08:30:00,16.7,5.3,30.03,NNW,345,1.9,1.9,60,0.00,,,0.00,0,TxWx,2013-02-01 13:30:00,
2013-02-01 08:33:00,16.5,6.3,30.03,NE,51,0.0,0.0,63,0.00,,,0.00,0,TxWx,2013-02-01 13:33:00,
2013-02-01 08:34:00,16.4,6.2,30.03,WNW,291,0.0,0.0,63,0.00,,,0.00,0,TxWx,2013-02-01 13:34:00,
2013-02-01 08:35:00,16.3,6.1,30.03,WNW,289,1.5,1.5,63,0.00,,,0.00,0,TxWx,2013-02-01 13:35:00,
2013-02-01 08:38:00,16.0,6.8,30.03,West,281,0.0,0.0,66,0.00,,,0.00,0,TxWx,2013-02-01 13:38:00,
2013-02-01 08:39:00,15.9,6.6,30.03,West,270,1.1,1.1,66,0.00,,,0.00,0,TxWx,2013-02-01 13:39:00,
2013-02-01 08:40:00,15.9,6.6,30.03,WNW,303,0.0,0.0,66,0.00,,,0.00,0,TxWx,2013-02-01 13:40:00,
2013-02-01 08:43:00,15.9,6.9,30.04,WSW,246,2.3,3.0,67,0.00,,,0.00,0,TxWx,2013-02-01 13:43:00,
2013-02-01 08:44:00,15.6,6.8,30.04,SSW,208,0.0,0.0,67,0.00,,,0.00,0,TxWx,2013-02-01 13:44:00,
2013-02-01 08:45:00,15.6,7.1,30.04,West,269,0.0,0.0,68,0.00,,,0.00,0,TxWx,2013-02-01 13:45:00,
2013-02-01 08:49:00,15.4,7.4,30.04,West,277,0.0,0.0,70,0.00,,,0.00,0,TxWx,2013-02-01 13:49:00,
2013-02-01 08:50:00,15.4,7.4,30.04,West,278,0.0,0.0,70,0.00,,,0.00,0,TxWx,2013-02-01 13:50:00,
2013-02-01 08:54:00,15.3,7.4,30.04,West,276,0.0,0.0,70,0.00,,,0.00,0,TxWx,2013-02-01 13:54:00,
2013-02-01 08:55:00,15.3,7.5,30.04,South,187,0.7,0.0,70,0.00,,,0.00,0,TxWx,2013-02-01 13:55:00,
2013-02-01 09:00:00,15.3,8.0,30.05,SSW,209,0.0,0.0,72,0.00,,,0.00,0,TxWx,2013-02-01 14:00:00,
2013-02-01 09:01:00,15.3,8.1,30.05,SSW,202,1.1,1.1,72,0.00,,,0.00,0,TxWx,2013-02-01 14:01:00,
2013-02-01 09:05:00,15.4,8.3,30.05,East,96,0.0,0.0,72,0.00,,,0.00,0,TxWx,2013-02-01 14:05:00,
2013-02-01 09:06:00,15.4,8.2,30.05,NE,53,0.0,0.0,72,0.00,,,0.00,0,TxWx,2013-02-01 14:06:00,
2013-02-01 09:10:00,15.2,8.4,30.05,SSE,148,2.3,2.3,73,0.00,,,0.00,0,TxWx,2013-02-01 14:10:00,
2013-02-01 09:11:00,15.1,8.2,30.05,South,173,0.3,0.0,73,0.00,,,0.00,0,TxWx,2013-02-01 14:11:00,
2013-02-01 09:15:00,14.8,7.8,30.05,SW,217,0.0,0.0,73,0.00,,,0.00,0,TxWx,2013-02-01 14:15:00,
2013-02-01 09:16:00,14.8,7.8,30.05,WSW,239,0.3,0.0,73,0.00,,,0.00,0,TxWx,2013-02-01 14:16:00,
2013-02-01 09:20:00,14.9,8.0,30.06,SW,227,0.0,0.0,73,0.00,,,0.00,0,TxWx,2013-02-01 14:20:00,
2013-02-01 09:21:00,14.9,8.1,30.06,SW,217,0.0,0.0,74,0.00,,,0.00,0,TxWx,2013-02-01 14:21:00,
2013-02-01 09:22:00,14.9,8.3,30.06,SSW,192,0.0,0.0,74,0.00,,,0.00,0,TxWx,2013-02-01 14:22:00,
2013-02-01 09:25:00,14.9,8.4,30.06,SW,219,0.0,0.0,74,0.00,,,0.00,0,TxWx,2013-02-01 14:25:00,
2013-02-01 09:26:00,15.0,8.5,30.06,SSW,210,0.0,0.0,74,0.00,,,0.00,0,TxWx,2013-02-01 14:26:00,
2013-02-01 09:27:00,15.0,8.5,30.06,SSW,206,0.0,0.0,74,0.00,,,0.00,0,TxWx,2013-02-01 14:27:00,
2013-02-01 09:30:00,14.5,7.7,30.07,SW,215,1.5,1.5,73,0.00,,,0.00,0,TxWx,2013-02-01 14:30:00,
2013-02-01 09:31:00,14.5,7.7,30.07,SSW,196,0.7,1.0,73,0.00,,,0.00,0,TxWx,2013-02-01 14:31:00,
2013-02-01 09:32:00,14.6,7.8,30.07,NNW,343,0.0,0.0,74,0.00,,,0.00,0,TxWx,2013-02-01 14:32:00,
2013-02-01 09:35:00,14.5,8.0,30.07,SW,224,1.9,1.9,74,0.00,,,0.00,0,TxWx,2013-02-01 14:35:00,
2013-02-01 09:36:00,14.4,7.9,30.07,SW,231,1.1,1.1,74,0.00,,,0.00,0,TxWx,2013-02-01 14:36:00,
2013-02-01 09:38:00,14.4,7.9,30.07,WSW,248,0.3,0.0,74,0.00,,,0.00,0,TxWx,2013-02-01 14:38:00,
2013-02-01 09:41:00,14.4,8.1,30.07,SW,218,0.7,1.0,75,0.00,,,0.00,0,TxWx,2013-02-01 14:41:00,
2013-02-01 09:43:00,14.5,8.0,30.07,SW,232,0.0,0.0,74,0.00,,,0.00,0,TxWx,2013-02-01 14:43:00,
2013-02-01 09:46:00,14.7,8.3,30.07,SW,231,0.0,0.0,75,0.00,,,0.00,0,TxWx,2013-02-01 14:46:00,
2013-02-01 09:48:00,14.7,8.3,30.07,NE,53,0.0,0.0,75,0.00,,,0.00,0,TxWx,2013-02-01 14:48:00,
2013-02-01 09:51:00,14.7,8.3,30.07,East,93,1.1,1.1,75,0.00,,,0.00,0,TxWx,2013-02-01 14:51:00,
2013-02-01 09:53:00,14.7,8.5,30.08,East,81,0.0,0.0,76,0.00,,,0.00,0,TxWx,2013-02-01 14:53:00,
2013-02-01 09:56:00,14.7,8.6,30.08,East,100,0.0,0.0,76,0.00,,,0.00,0,TxWx,2013-02-01 14:56:00,
2013-02-01 09:58:00,14.6,8.2,30.08,NE,40,0.7,1.0,75,0.00,,,0.00,0,TxWx,2013-02-01 14:58:00,
2013-02-01 10:01:00,14.5,8.2,30.08,West,276,0.0,0.0,75,0.00,,,0.00,0,TxWx,2013-02-01 15:01:00,
2013-02-01 10:02:00,14.4,8.2,30.08,West,276,0.0,0.0,75,0.00,,,0.00,0,TxWx,2013-02-01 15:02:00,
2013-02-01 10:03:00,14.4,8.2,30.08,WSW,258,0.0,0.0,75,0.00,,,0.00,0,TxWx,2013-02-01 15:03:00,
2013-02-01 10:06:00,14.5,8.5,30.08,NE,38,0.0,0.0,76,0.00,,,0.00,0,TxWx,2013-02-01 15:06:00,
2013-02-01 10:07:00,14.5,8.5,30.08,NE,38,0.0,0.0,76,0.00,,,0.00,0,TxWx,2013-02-01 15:07:00,
2013-02-01 10:10:00,14.6,8.4,30.09,NW,324,0.0,0.0,75,0.00,,,0.00,0,TxWx,2013-02-01 15:10:00,
2013-02-01 10:11:00,14.6,8.5,30.09,NW,324,0.0,0.0,75,0.00,,,0.00,0,TxWx,2013-02-01 15:11:00,
2013-02-01 10:12:00,14.7,8.4,30.09,NW,307,0.0,0.0,75,0.00,,,0.00,0,TxWx,2013-02-01 15:12:00,
2013-02-01 10:16:00,14.7,8.3,30.09,NW,317,0.0,0.0,75,0.00,,,0.00,0,TxWx,2013-02-01 15:16:00,
2013-02-01 10:17:00,14.8,8.1,30.09,NW,312,0.0,0.0,74,0.00,,,0.00,0,TxWx,2013-02-01 15:17:00,
2013-02-01 10:18:00,14.9,8.0,30.09,NNW,337,0.0,0.0,73,0.00,,,0.00,0,TxWx,2013-02-01 15:18:00,
2013-02-01 10:21:00,15.0,8.1,30.09,WNW,283,0.0,0.0,73,0.00,,,0.00,0,TxWx,2013-02-01 15:21:00,
2013-02-01 10:27:00,15.2,7.9,30.09,WNW,294,0.0,0.0,72,0.00,,,0.00,0,TxWx,2013-02-01 15:27:00,
2013-02-01 10:28:00,15.2,7.9,30.09,WNW,294,0.0,0.0,72,0.00,,,0.00,0,TxWx,2013-02-01 15:28:00,
2013-02-01 10:32:00,15.2,8.1,30.09,NW,313,0.0,0.0,72,0.00,,,0.00,0,TxWx,2013-02-01 15:32:00,
2013-02-01 10:33:00,15.2,8.1,30.09,North,354,0.0,0.0,72,0.00,,,0.00,0,TxWx,2013-02-01 15:33:00,
2013-02-01 10:37:00,15.4,8.0,30.09,North,0,0.3,0.0,72,0.00,,,0.00,0,TxWx,2013-02-01 15:37:00,
2013-02-01 10:38:00,15.4,8.0,30.09,North,0,0.3,0.0,72,0.00,,,0.00,0,TxWx,2013-02-01 15:38:00,
2013-02-01 10:45:00,15.9,8.3,30.10,West,281,0.0,0.0,71,0.00,,,0.00,0,TxWx,2013-02-01 15:45:00,
2013-02-01 11:17:00,17.3,7.1,30.10,NE,35,1.9,2.0,63,0.00,,,0.00,0,TxWx,2013-02-01 16:17:00,
2013-02-01 11:18:00,17.3,7.1,30.10,NE,41,1.5,1.5,63,0.00,,,0.00,0,TxWx,2013-02-01 16:18:00,
2013-02-01 11:23:00,17.4,6.8,30.10,East,85,0.7,1.0,62,0.00,,,0.00,0,TxWx,2013-02-01 16:23:00,
2013-02-01 12:34:00,19.5,6.9,30.11,NE,45,1.1,1.1,57,0.00,,,0.00,0,TxWx,2013-02-01 17:34:00,
2013-02-01 12:35:00,19.5,6.9,30.11,East,84,0.7,1.0,57,0.00,,,0.00,0,TxWx,2013-02-01 17:35:00,
2013-02-01 12:40:00,19.7,6.4,30.10,West,267,0.7,0.0,55,0.00,,,0.00,0,TxWx,2013-02-01 17:40:00,
2013-02-01 12:45:00,20.2,7.2,30.10,West,276,0.3,0.0,56,0.00,,,0.00,0,TxWx,2013-02-01 17:45:00,
2013-02-01 12:46:00,20.2,7.6,30.10,WSW,248,0.3,0.0,57,0.00,,,0.00,0,TxWx,2013-02-01 17:46:00,
2013-02-01 12:50:00,20.7,7.1,30.10,NNW,341,0.0,0.0,55,0.00,,,0.00,0,TxWx,2013-02-01 17:50:00,
2013-02-01 12:51:00,20.9,8.0,30.10,NNW,333,1.1,1.1,56,0.00,,,0.00,0,TxWx,2013-02-01 17:51:00,
2013-02-01 12:55:00,20.8,6.8,30.10,WNW,302,1.5,1.5,54,0.00,,,0.00,0,TxWx,2013-02-01 17:55:00,
2013-02-01 12:56:00,20.8,6.8,30.10,NNW,340,3.4,3.4,54,0.00,,,0.00,0,TxWx,2013-02-01 17:56:00,
2013-02-01 13:00:00,20.5,6.0,30.11,SW,226,1.5,1.5,52,0.00,,,0.00,0,TxWx,2013-02-01 18:00:00,
2013-02-01 13:01:00,20.5,6.0,30.11,SW,224,1.1,1.1,52,0.00,,,0.00,0,TxWx,2013-02-01 18:01:00,
2013-02-01 13:02:00,20.5,6.1,30.11,WSW,240,2.6,2.6,53,0.00,,,0.00,0,TxWx,2013-02-01 18:02:00,
2013-02-01 13:05:00,20.3,6.2,30.10,West,262,1.1,1.1,53,0.00,,,0.00,0,TxWx,2013-02-01 18:05:00,
2013-02-01 13:06:00,20.3,6.2,30.10,WSW,257,1.5,1.5,53,0.00,,,0.00,0,TxWx,2013-02-01 18:06:00,
2013-02-01 13:07:00,20.3,6.2,30.10,West,280,0.0,0.0,53,0.00,,,0.00,0,TxWx,2013-02-01 18:07:00,
2013-02-01 13:10:00,21.0,6.8,30.10,NNW,332,0.3,0.0,53,0.00,,,0.00,0,TxWx,2013-02-01 18:10:00,
2013-02-01 13:11:00,21.0,6.8,30.10,NNW,331,0.3,0.0,53,0.00,,,0.00,0,TxWx,2013-02-01 18:11:00,
2013-02-01 13:12:00,21.3,7.2,30.10,WNW,292,3.0,3.0,53,0.00,,,0.00,0,TxWx,2013-02-01 18:12:00,
2013-02-01 13:16:00,21.4,6.5,30.10,South,191,0.7,0.0,51,0.00,,,0.00,0,TxWx,2013-02-01 18:16:00,
2013-02-01 13:17:00,21.6,6.7,30.10,North,359,0.0,0.0,51,0.00,,,0.00,0,TxWx,2013-02-01 18:17:00,
2013-02-01 13:21:00,22.0,6.9,30.10,ESE,113,0.0,0.0,51,0.00,,,0.00,0,TxWx,2013-02-01 18:21:00,
2013-02-01 13:22:00,22.2,7.1,30.10,West,268,1.1,1.1,51,0.00,,,0.00,0,TxWx,2013-02-01 18:22:00,
2013-02-01 13:26:00,21.9,7.0,30.10,WNW,285,1.9,1.9,52,0.00,,,0.00,0,TxWx,2013-02-01 18:26:00,
2013-02-01 13:27:00,21.9,7.0,30.10,West,268,1.1,1.1,52,0.00,,,0.00,0,TxWx,2013-02-01 18:27:00,
2013-02-01 13:31:00,21.7,6.5,30.10,West,273,0.3,0.0,51,0.00,,,0.00,0,TxWx,2013-02-01 18:31:00,
2013-02-01 13:32:00,22.0,7.4,30.10,West,265,1.9,2.0,52,0.00,,,0.00,0,TxWx,2013-02-01 18:32:00,
2013-02-01 13:36:00,22.3,7.5,30.10,North,7,2.6,2.6,52,0.00,,,0.00,0,TxWx,2013-02-01 18:36:00,
2013-02-01 13:37:00,22.1,6.3,30.10,North,5,1.9,2.0,49,0.00,,,0.00,0,TxWx,2013-02-01 18:37:00,
2013-02-01 13:38:00,22.1,6.3,30.10,ENE,58,1.9,2.0,49,0.00,,,0.00,0,TxWx,2013-02-01 18:38:00,
2013-02-01 13:41:00,22.8,7.6,30.10,WSW,255,2.6,2.6,51,0.00,,,0.00,0,TxWx,2013-02-01 18:41:00,
2013-02-01 13:42:00,22.7,7.4,30.10,West,260,2.3,2.3,51,0.00,,,0.00,0,TxWx,2013-02-01 18:42:00,
2013-02-01 13:43:00,22.7,7.6,30.10,WNW,294,2.3,2.3,51,0.00,,,0.00,0,TxWx,2013-02-01 18:43:00,
2013-02-01 13:46:00,22.7,7.6,30.10,West,265,1.9,2.0,51,0.00,,,0.00,0,TxWx,2013-02-01 18:46:00,
2013-02-01 13:47:00,22.7,7.3,30.10,West,269,0.3,0.0,51,0.00,,,0.00,0,TxWx,2013-02-01 18:47:00,
2013-02-01 13:48:00,22.7,7.3,30.10,NNW,342,0.3,0.0,51,0.00,,,0.00,0,TxWx,2013-02-01 18:48:00,
2013-02-01 13:51:00,23.2,6.9,30.10,ESE,110,0.3,0.0,49,0.00,,,0.00,0,TxWx,2013-02-01 18:51:00,
2013-02-01 13:52:00,23.1,6.2,30.10,SSE,164,0.3,0.0,47,0.00,,,0.00,0,TxWx,2013-02-01 18:52:00,
2013-02-01 13:53:00,23.1,6.2,30.10,SW,214,0.3,0.0,47,0.00,,,0.00,0,TxWx,2013-02-01 18:53:00,
2013-02-01 13:57:00,23.7,7.5,30.10,NW,321,1.1,1.1,49,0.00,,,0.00,0,TxWx,2013-02-01 18:57:00,
2013-02-01 13:58:00,23.2,5.8,30.10,NE,42,2.3,2.3,46,0.00,,,0.00,0,TxWx,2013-02-01 18:58:00,
2013-02-01 14:02:00,23.7,7.1,30.10,WNW,296,1.5,1.5,48,0.00,,,0.00,0,TxWx,2013-02-01 19:02:00,
2013-02-01 14:03:00,23.7,7.6,30.10,WNW,289,1.1,1.1,49,0.00,,,0.00,0,TxWx,2013-02-01 19:03:00,
2013-02-01 14:07:00,24.1,7.7,30.10,WNW,289,2.3,2.3,49,0.00,,,0.00,0,TxWx,2013-02-01 19:07:00,
2013-02-01 14:08:00,23.8,7.1,30.10,WNW,293,2.6,2.6,48,0.00,,,0.00,0,TxWx,2013-02-01 19:08:00,
2013-02-01 14:12:00,24.3,8.1,30.10,North,0,0.7,0.0,49,0.00,,,0.00,0,TxWx,2013-02-01 19:12:00,
2013-02-01 14:13:00,23.6,5.9,30.10,North,359,2.3,2.3,45,0.00,,,0.00,0,TxWx,2013-02-01 19:13:00,
2013-02-01 14:14:00,23.0,4.8,30.10,North,8,1.9,1.9,44,0.00,,,0.00,0,TxWx,2013-02-01 19:14:00,
2013-02-01 14:17:00,22.8,5.0,30.10,NW,313,0.0,0.0,45,0.00,,,0.00,0,TxWx,2013-02-01 19:17:00,
2013-02-01 14:18:00,22.8,4.8,30.10,West,271,1.1,1.1,45,0.00,,,0.00,0,TxWx,2013-02-01 19:18:00,
2013-02-01 14:19:00,22.9,5.0,30.10,WSW,245,1.5,1.5,45,0.00,,,0.00,0,TxWx,2013-02-01 19:19:00,
2013-02-01 14:22:00,23.0,5.3,30.10,NE,55,1.5,1.5,45,0.00,,,0.00,0,TxWx,2013-02-01 19:22:00,
2013-02-01 14:23:00,23.0,5.3,30.10,NNE,20,1.9,1.9,45,0.00,,,0.00,0,TxWx,2013-02-01 19:23:00,
2013-02-01 14:24:00,23.0,5.5,30.10,NNE,22,2.6,2.6,46,0.00,,,0.00,0,TxWx,2013-02-01 19:24:00,
2013-02-01 14:27:00,23.6,6.6,30.11,WNW,287,1.9,2.0,47,0.00,,,0.00,0,TxWx,2013-02-01 19:27:00,
2013-02-01 14:28:00,23.6,6.6,30.11,WSW,252,2.3,3.0,47,0.00,,,0.00,0,TxWx,2013-02-01 19:28:00,
2013-02-01 14:29:00,23.7,7.4,30.10,WSW,255,1.1,1.1,49,0.00,,,0.00,0,TxWx,2013-02-01 19:29:00,
2013-02-01 14:32:00,23.6,6.5,30.10,West,272,1.5,1.5,47,0.00,,,0.00,0,TxWx,2013-02-01 19:32:00,
2013-02-01 14:33:00,23.6,6.5,30.10,WNW,300,0.7,0.0,47,0.00,,,0.00,0,TxWx,2013-02-01 19:33:00,
2013-02-01 14:34:00,23.8,6.7,30.10,NW,324,1.1,1.1,47,0.00,,,0.00,0,TxWx,2013-02-01 19:34:00,
2013-02-01 14:38:00,23.7,6.2,30.10,SE,135,2.6,2.6,46,0.00,,,0.00,0,TxWx,2013-02-01 19:38:00,
2013-02-01 14:39:00,23.6,5.6,30.10,ESE,109,0.7,0.0,45,0.00,,,0.00,0,TxWx,2013-02-01 19:39:00,
2013-02-01 14:43:00,23.9,6.3,30.10,WNW,303,2.3,2.3,46,0.00,,,0.00,0,TxWx,2013-02-01 19:43:00,
2013-02-01 14:44:00,23.8,6.4,30.10,North,0,0.7,0.0,46,0.00,,,0.00,0,TxWx,2013-02-01 19:44:00,
2013-02-01 14:48:00,23.4,5.4,30.10,WNW,302,0.0,0.0,45,0.00,,,0.00,0,TxWx,2013-02-01 19:48:00,
2013-02-01 14:49:00,23.7,6.2,30.10,NW,307,2.6,2.6,46,0.00,,,0.00,0,TxWx,2013-02-01 19:49:00,
2013-02-01 14:53:00,23.9,7.3,30.10,NNW,339,3.0,3.0,48,0.00,,,0.00,0,TxWx,2013-02-01 19:53:00,
2013-02-01 14:54:00,23.3,4.7,30.10,South,185,0.3,0.0,44,0.00,,,0.00,0,TxWx,2013-02-01 19:54:00,
2013-02-01 14:55:00,23.3,4.7,30.10,South,190,0.0,0.0,44,0.00,,,0.00,0,TxWx,2013-02-01 19:55:00,
2013-02-01 14:58:00,23.5,5.3,30.10,SE,144,0.0,0.0,45,0.00,,,0.00,0,TxWx,2013-02-01 19:58:00,
2013-02-01 15:00:00,23.8,6.6,30.10,WNW,294,2.3,2.3,47,0.00,,,0.00,0,TxWx,2013-02-01 20:00:00,
2013-02-01 15:03:00,23.8,5.8,30.10,WNW,303,0.7,1.0,45,0.00,,,0.00,0,TxWx,2013-02-01 20:03:00,
2013-02-01 15:05:00,23.7,5.8,30.10,West,273,0.0,0.0,45,0.00,,,0.00,0,TxWx,2013-02-01 20:05:00,
2013-02-01 15:08:00,23.6,5.2,30.10,SSW,208,0.7,1.0,44,0.00,,,0.00,0,TxWx,2013-02-01 20:08:00,
2013-02-01 15:10:00,23.7,5.3,30.10,WNW,300,1.9,2.0,44,0.00,,,0.00,0,TxWx,2013-02-01 20:10:00,
2013-02-01 15:13:00,24.0,6.3,30.10,NW,307,0.3,0.0,46,0.00,,,0.00,0,TxWx,2013-02-01 20:13:00,
2013-02-01 15:15:00,23.9,5.9,30.10,NE,41,0.7,0.0,45,0.00,,,0.00,0,TxWx,2013-02-01 20:15:00,
2013-02-01 15:18:00,23.9,5.9,30.11,SW,216,1.9,1.9,45,0.00,,,0.00,0,TxWx,2013-02-01 20:18:00,
2013-02-01 15:20:00,23.5,5.0,30.11,SW,214,1.1,1.1,44,0.00,,,0.00,0,TxWx,2013-02-01 20:20:00,
2013-02-01 15:23:00,24.0,6.6,30.11,NNW,339,1.1,1.1,46,0.00,,,0.00,0,TxWx,2013-02-01 20:23:00,
2013-02-01 15:25:00,23.6,5.0,30.11,West,260,1.5,1.5,44,0.00,,,0.00,0,TxWx,2013-02-01 20:25:00,
2013-02-01 15:28:00,23.4,4.4,30.11,South,179,0.7,1.0,43,0.00,,,0.00,0,TxWx,2013-02-01 20:28:00,
2013-02-01 15:30:00,23.5,4.9,30.10,West,276,1.5,1.5,44,0.00,,,0.00,0,TxWx,2013-02-01 20:30:00,
2013-02-01 15:33:00,23.9,5.6,30.10,West,270,0.0,0.0,44,0.00,,,0.00,0,TxWx,2013-02-01 20:33:00,
2013-02-01 15:34:00,23.9,5.6,30.10,West,280,1.9,1.9,44,0.00,,,0.00,0,TxWx,2013-02-01 20:34:00,
2013-02-01 15:35:00,24.2,6.7,30.11,WNW,297,1.1,1.1,46,0.00,,,0.00,0,TxWx,2013-02-01 20:35:00,
2013-02-01 15:36:00,24.3,7.0,30.11,West,277,1.1,1.1,46,0.00,,,0.00,0,TxWx,2013-02-01 20:36:00,
2013-02-01 15:39:00,24.1,6.2,30.10,West,276,0.0,0.0,45,0.00,,,0.00,0,TxWx,2013-02-01 20:39:00,
2013-02-01 15:40:00,24.1,5.4,30.10,SSW,211,0.0,0.0,44,0.00,,,0.00,0,TxWx,2013-02-01 20:40:00,
2013-02-01 15:41:00,24.0,5.0,30.10,West,270,0.3,0.0,43,0.00,,,0.00,0,TxWx,2013-02-01 20:41:00,
2013-02-01 15:44:00,24.0,5.8,30.10,West,269,0.0,0.0,45,0.00,,,0.00,0,TxWx,2013-02-01 20:44:00,
2013-02-01 15:45:00,24.2,6.6,30.10,SSW,200,1.5,1.5,46,0.00,,,0.00,0,TxWx,2013-02-01 20:45:00,
2013-02-01 15:47:00,24.3,6.5,30.10,WNW,298,0.0,0.0,46,0.00,,,0.00,0,TxWx,2013-02-01 20:47:00,
2013-02-01 15:49:00,24.6,6.4,30.10,NNW,345,0.3,0.0,45,0.00,,,0.00,0,TxWx,2013-02-01 20:49:00,
2013-02-01 15:50:00,24.6,6.7,30.10,South,176,0.3,0.0,45,0.00,,,0.00,0,TxWx,2013-02-01 20:50:00,
2013-02-01 15:52:00,24.4,6.3,30.10,WNW,296,1.9,1.9,45,0.00,,,0.00,0,TxWx,2013-02-01 20:52:00,
2013-02-01 15:54:00,24.3,6.2,30.10,West,270,1.1,1.1,45,0.00,,,0.00,0,TxWx,2013-02-01 20:54:00,
2013-02-01 15:55:00,24.4,6.1,30.10,WNW,287,0.0,0.0,44,0.00,,,0.00,0,TxWx,2013-02-01 20:55:00,
2013-02-01 15:57:00,24.5,6.9,30.10,WNW,287,2.3,2.3,46,0.00,,,0.00,0,TxWx,2013-02-01 20:57:00,
2013-02-01 15:59:00,24.5,7.4,30.10,West,268,1.9,2.0,47,0.00,,,0.00,0,TxWx,2013-02-01 20:59:00,
2013-02-01 16:01:00,24.5,6.9,30.10,WNW,303,0.7,0.0,46,0.00,,,0.00,0,TxWx,2013-02-01 21:01:00,
2013-02-01 16:04:00,24.6,7.0,30.10,West,266,1.1,1.1,46,0.00,,,0.00,0,TxWx,2013-02-01 21:04:00,
2013-02-01 16:06:00,24.7,7.3,30.11,North,354,1.1,1.1,46,0.00,,,0.00,0,TxWx,2013-02-01 21:06:00,
2013-02-01 16:09:00,24.3,6.0,30.11,WSW,255,1.1,1.1,44,0.00,,,0.00,0,TxWx,2013-02-01 21:09:00,
2013-02-01 16:10:00,24.3,6.0,30.11,West,271,0.3,0.0,44,0.00,,,0.00,0,TxWx,2013-02-01 21:10:00,
2013-02-01 16:11:00,24.2,5.6,30.11,WNW,282,1.9,1.9,44,0.00,,,0.00,0,TxWx,2013-02-01 21:11:00,
2013-02-01 16:14:00,24.1,6.2,30.11,WNW,286,1.1,1.1,45,0.00,,,0.00,0,TxWx,2013-02-01 21:14:00,
2013-02-01 16:15:00,24.1,6.2,30.11,West,276,0.0,0.0,45,0.00,,,0.00,0,TxWx,2013-02-01 21:15:00,
2013-02-01 16:16:00,23.9,6.2,30.11,WNW,289,0.3,0.0,45,0.00,,,0.00,0,TxWx,2013-02-01 21:16:00,
2013-02-01 16:19:00,23.8,6.3,30.11,NNW,343,1.1,1.1,46,0.00,,,0.00,0,TxWx,2013-02-01 21:19:00,
2013-02-01 16:20:00,23.8,6.3,30.11,North,3,1.1,1.1,46,0.00,,,0.00,0,TxWx,2013-02-01 21:20:00,
2013-02-01 16:21:00,23.9,4.8,30.11,NNW,348,0.0,0.0,43,0.00,,,0.00,0,TxWx,2013-02-01 21:21:00,
2013-02-01 16:24:00,23.6,6.9,30.11,WNW,296,1.5,1.5,48,0.00,,,0.00,0,TxWx,2013-02-01 21:24:00,
2013-02-01 16:25:00,23.6,6.9,30.11,West,279,1.5,1.5,48,0.00,,,0.00,0,TxWx,2013-02-01 21:25:00,
2013-02-01 16:27:00,23.3,6.4,30.12,WSW,243,0.7,0.0,47,0.00,,,0.00,0,TxWx,2013-02-01 21:27:00,
2013-02-01 16:30:00,23.3,6.9,30.12,WNW,303,0.0,0.0,48,0.00,,,0.00,0,TxWx,2013-02-01 21:30:00,
2013-02-01 16:32:00,23.4,6.6,30.12,West,268,0.3,0.0,48,0.00,,,0.00,0,TxWx,2013-02-01 21:32:00,
2013-02-01 16:35:00,22.9,7.4,30.12,West,278,0.0,0.0,50,0.00,,,0.00,0,TxWx,2013-02-01 21:35:00,
2013-02-01 16:37:00,22.8,7.8,30.12,West,263,0.0,0.0,51,0.00,,,0.00,0,TxWx,2013-02-01 21:37:00,
2013-02-01 16:40:00,22.8,7.3,30.12,WNW,287,0.0,0.0,50,0.00,,,0.00,0,TxWx,2013-02-01 21:40:00,
2013-02-01 16:42:00,23.0,7.2,30.12,NNE,24,2.6,2.6,50,0.00,,,0.00,0,TxWx,2013-02-01 21:42:00,
2013-02-01 16:45:00,23.1,5.3,30.12,SW,215,0.0,0.0,45,0.00,,,0.00,0,TxWx,2013-02-01 21:45:00,
2013-02-01 16:47:00,22.7,6.2,30.12,WNW,286,2.6,3.0,48,0.00,,,0.00,0,TxWx,2013-02-01 21:47:00,
2013-02-01 16:50:00,22.9,6.8,30.12,South,172,0.7,0.0,49,0.00,,,0.00,0,TxWx,2013-02-01 21:50:00,
2013-02-01 16:52:00,22.7,8.8,30.12,SSW,207,0.0,0.0,54,0.00,,,0.00,0,TxWx,2013-02-01 21:52:00,
2013-02-01 16:55:00,22.8,6.5,30.12,West,271,1.1,1.1,48,0.00,,,0.00,0,TxWx,2013-02-01 21:55:00,
2013-02-01 16:56:00,22.8,6.5,30.12,West,261,1.1,1.1,48,0.00,,,0.00,0,TxWx,2013-02-01 21:56:00,
2013-02-01 16:58:00,22.9,6.0,30.12,WNW,303,0.0,0.0,47,0.00,,,0.00,0,TxWx,2013-02-01 21:58:00,
2013-02-01 17:00:00,22.8,4.8,30.12,NNE,13,1.1,1.1,45,0.00,,,0.00,0,TxWx,2013-02-01 22:00:00,
2013-02-01 17:01:00,22.8,4.8,30.12,NNE,30,0.0,0.0,45,0.00,,,0.00,0,TxWx,2013-02-01 22:01:00,
2013-02-01 17:03:00,22.9,5.0,30.12,West,275,0.3,0.0,45,0.00,,,0.00,0,TxWx,2013-02-01 22:03:00,
2013-02-01 17:06:00,23.0,5.8,30.12,NNW,327,0.7,0.0,47,0.00,,,0.00,0,TxWx,2013-02-01 22:06:00,
2013-02-01 17:08:00,22.9,5.6,30.12,WNW,301,0.7,1.0,46,0.00,,,0.00,0,TxWx,2013-02-01 22:08:00,
2013-02-01 17:11:00,22.8,5.7,30.12,West,279,0.0,0.0,47,0.00,,,0.00,0,TxWx,2013-02-01 22:11:00,
2013-02-01 17:13:00,22.7,6.0,30.12,SSE,150,0.0,0.0,48,0.00,,,0.00,0,TxWx,2013-02-01 22:13:00,
2013-02-01 17:16:00,22.4,6.7,30.12,WNW,302,0.0,0.0,50,0.00,,,0.00,0,TxWx,2013-02-01 22:16:00,
2013-02-01 17:19:00,22.3,6.1,30.12,WNW,293,0.3,0.0,49,0.00,,,0.00,0,TxWx,2013-02-01 22:19:00,
2013-02-01 17:23:00,22.4,5.9,30.12,NNW,338,0.0,0.0,48,0.00,,,0.00,0,TxWx,2013-02-01 22:23:00,
2013-02-01 17:24:00,22.4,5.5,30.12,NW,322,0.0,0.0,47,0.00,,,0.00,0,TxWx,2013-02-01 22:24:00,
2013-02-01 17:46:00,21.4,6.2,30.12,South,186,0.0,0.0,51,0.00,,,0.00,0,TxWx,2013-02-01 22:46:00,
2013-02-01 17:52:00,21.3,7.1,30.12,SSW,211,0.7,0.0,53,0.00,,,0.00,0,TxWx,2013-02-01 22:52:00,
2013-02-01 17:57:00,21.2,8.5,30.12,SW,228,0.0,0.0,57,0.00,,,0.00,0,TxWx,2013-02-01 22:57:00,
2013-02-01 18:02:00,20.7,8.3,30.12,SSW,212,0.0,0.0,57,0.00,,,0.00,0,TxWx,2013-02-01 23:02:00,
2013-02-01 18:07:00,20.5,8.9,30.12,SSW,209,0.0,0.0,60,0.00,,,0.00,0,TxWx,2013-02-01 23:07:00,
2013-02-01 18:08:00,20.4,8.8,30.12,SSW,198,0.0,0.0,60,0.00,,,0.00,0,TxWx,2013-02-01 23:08:00,
2013-02-01 18:12:00,20.5,7.6,30.12,SW,223,0.0,0.0,56,0.00,,,0.00,0,TxWx,2013-02-01 23:12:00,
2013-02-01 18:13:00,20.5,7.6,30.12,SW,231,0.0,0.0,56,0.00,,,0.00,0,TxWx,2013-02-01 23:13:00,
2013-02-01 18:17:00,20.2,8.0,30.12,SW,217,0.7,1.0,58,0.00,,,0.00,0,TxWx,2013-02-01 23:17:00,
2013-02-01 18:18:00,20.2,8.0,30.12,SSW,213,0.7,0.0,58,0.00,,,0.00,0,TxWx,2013-02-01 23:18:00,
2013-02-01 18:22:00,20.1,7.7,30.12,SW,215,0.3,0.0,58,0.00,,,0.00,0,TxWx,2013-02-01 23:22:00,
2013-02-01 18:23:00,20.1,7.7,30.12,SSW,199,0.3,0.0,58,0.00,,,0.00,0,TxWx,2013-02-01 23:23:00,
2013-02-01 18:27:00,20.0,8.5,30.12,WSW,238,0.0,0.0,60,0.00,,,0.00,0,TxWx,2013-02-01 23:27:00,
2013-02-01 18:28:00,20.0,8.5,30.12,SW,226,0.0,0.0,60,0.00,,,0.00,0,TxWx,2013-02-01 23:28:00,
2013-02-01 18:32:00,19.8,8.4,30.12,SW,220,0.0,0.0,60,0.00,,,0.00,0,TxWx,2013-02-01 23:32:00,
2013-02-01 18:33:00,19.8,8.4,30.12,SW,216,0.0,0.0,60,0.00,,,0.00,0,TxWx,2013-02-01 23:33:00,
2013-02-01 18:37:00,19.5,8.3,30.12,SSW,209,0.7,0.0,61,0.00,,,0.00,0,TxWx,2013-02-01 23:37:00,
2013-02-01 18:38:00,19.5,8.3,30.12,SW,214,0.7,0.0,61,0.00,,,0.00,0,TxWx,2013-02-01 23:38:00,
2013-02-01 18:43:00,19.4,8.9,30.12,WSW,249,0.0,0.0,62,0.00,,,0.00,0,TxWx,2013-02-01 23:43:00,
2013-02-01 18:48:00,19.2,8.1,30.13,SW,216,0.7,0.0,61,0.00,,,0.00,0,TxWx,2013-02-01 23:48:00,
2013-02-01 18:49:00,19.2,8.1,30.13,SW,231,0.0,0.0,61,0.00,,,0.00,0,TxWx,2013-02-01 23:49:00,
2013-02-01 18:53:00,19.2,8.6,30.13,SSW,205,0.0,0.0,62,0.00,,,0.00,0,TxWx,2013-02-01 23:53:00,
2013-02-01 18:54:00,19.2,8.6,30.13,SSW,207,0.0,0.0,62,0.00,,,0.00,0,TxWx,2013-02-01 23:54:00,
2013-02-01 18:58:00,19.1,8.2,30.14,WSW,247,0.0,0.0,61,0.00,,,0.00,0,TxWx,2013-02-01 23:58:00,
2013-02-01 18:59:00,19.1,8.2,30.14,WSW,248,0.0,0.0,61,0.00,,,0.00,0,TxWx,2013-02-01 23:59:00,
2013-02-01 19:03:00,18.9,8.9,30.14,SW,220,0.3,0.0,64,0.00,,,0.00,0,TxWx,2013-02-02 00:03:00,
2013-02-01 19:04:00,18.9,8.9,30.14,SW,228,0.0,0.0,64,0.00,,,0.00,0,TxWx,2013-02-02 00:04:00,
2013-02-01 19:05:00,18.9,9.3,30.14,SW,233,0.0,0.0,65,0.00,,,0.00,0,TxWx,2013-02-02 00:05:00,
2013-02-01 19:08:00,18.8,8.7,30.14,WSW,256,0.0,0.0,64,0.00,,,0.00,0,TxWx,2013-02-02 00:08:00,
2013-02-01 19:09:00,18.8,8.7,30.14,WSW,255,0.0,0.0,64,0.00,,,0.00,0,TxWx,2013-02-02 00:09:00,
2013-02-01 19:10:00,18.8,8.8,30.14,SW,214,0.0,0.0,64,0.00,,,0.00,0,TxWx,2013-02-02 00:10:00,
2013-02-01 19:13:00,18.7,9.3,30.14,WSW,246,0.0,0.0,66,0.00,,,0.00,0,TxWx,2013-02-02 00:13:00,
2013-02-01 19:14:00,18.7,9.3,30.14,SW,228,0.0,0.0,66,0.00,,,0.00,0,TxWx,2013-02-02 00:14:00,
2013-02-01 19:15:00,18.6,9.0,30.14,SW,214,0.7,0.0,65,0.00,,,0.00,0,TxWx,2013-02-02 00:15:00,
2013-02-01 19:18:00,18.7,8.6,30.14,SW,235,0.0,0.0,64,0.00,,,0.00,0,TxWx,2013-02-02 00:18:00,
2013-02-01 19:19:00,18.7,8.6,30.14,SW,235,0.0,0.0,64,0.00,,,0.00,0,TxWx,2013-02-02 00:19:00,
2013-02-01 19:20:00,18.6,9.3,30.14,WSW,251,0.0,0.0,66,0.00,,,0.00,0,TxWx,2013-02-02 00:20:00,
2013-02-01 19:23:00,18.5,9.2,30.14,SSW,210,0.0,0.0,66,0.00,,,0.00,0,TxWx,2013-02-02 00:23:00,
2013-02-01 19:24:00,18.5,9.2,30.14,SSW,205,0.3,0.0,66,0.00,,,0.00,0,TxWx,2013-02-02 00:24:00,
2013-02-01 19:25:00,18.5,8.1,30.14,SW,234,0.0,0.0,63,0.00,,,0.00,0,TxWx,2013-02-02 00:25:00,
2013-02-01 19:28:00,18.4,8.4,30.14,SW,215,0.0,0.0,64,0.00,,,0.00,0,TxWx,2013-02-02 00:28:00,
2013-02-01 19:29:00,18.4,8.1,30.14,SW,215,0.0,0.0,63,0.00,,,0.00,0,TxWx,2013-02-02 00:29:00,
2013-02-01 19:31:00,18.4,8.0,30.14,SW,215,0.0,0.0,63,0.00,,,0.00,0,TxWx,2013-02-02 00:31:00,
2013-02-01 19:34:00,18.3,8.2,30.14,SW,233,0.0,0.0,63,0.00,,,0.00,0,TxWx,2013-02-02 00:34:00,
2013-02-01 19:36:00,18.4,8.3,30.15,WSW,245,0.0,0.0,63,0.00,,,0.00,0,TxWx,2013-02-02 00:36:00,
2013-02-01 19:39:00,18.3,8.2,30.15,SSW,209,0.0,0.0,64,0.00,,,0.00,0,TxWx,2013-02-02 00:39:00,
2013-02-01 19:40:00,18.3,8.3,30.15,SW,229,0.0,0.0,64,0.00,,,0.00,0,TxWx,2013-02-02 00:40:00,
2013-02-01 19:41:00,18.3,8.4,30.15,SW,231,0.0,0.0,64,0.00,,,0.00,0,TxWx,2013-02-02 00:41:00,
2013-02-01 19:44:00,18.3,8.0,30.15,West,269,0.0,0.0,63,0.00,,,0.00,0,TxWx,2013-02-02 00:44:00,
2013-02-01 19:45:00,18.3,8.0,30.15,West,269,0.0,0.0,63,0.00,,,0.00,0,TxWx,2013-02-02 00:45:00,
2013-02-01 19:46:00,18.3,7.9,30.15,West,269,0.0,0.0,63,0.00,,,0.00,0,TxWx,2013-02-02 00:46:00,
2013-02-01 19:49:00,18.1,8.0,30.15,West,269,0.0,0.0,64,0.00,,,0.00,0,TxWx,2013-02-02 00:49:00,
2013-02-01 19:50:00,18.1,8.0,30.15,West,269,0.0,0.0,64,0.00,,,0.00,0,TxWx,2013-02-02 00:50:00,
2013-02-01 19:51:00,18.0,8.3,30.15,West,269,0.0,0.0,65,0.00,,,0.00,0,TxWx,2013-02-02 00:51:00,
2013-02-01 19:54:00,17.9,8.1,30.15,South,189,0.0,0.0,64,0.00,,,0.00,0,TxWx,2013-02-02 00:54:00,
2013-02-01 19:55:00,17.9,8.1,30.15,SW,224,1.1,1.1,64,0.00,,,0.00,0,TxWx,2013-02-02 00:55:00,
2013-02-01 19:56:00,17.9,8.1,30.15,WSW,248,0.0,0.0,64,0.00,,,0.00,0,TxWx,2013-02-02 00:56:00,
2013-02-01 19:59:00,18.0,7.9,30.15,SW,218,0.0,0.0,64,0.00,,,0.00,0,TxWx,2013-02-02 00:59:00,
2013-02-01 20:00:00,18.0,7.9,30.15,SSW,194,0.0,0.0,63,0.00,,,0.00,0,TxWx,2013-02-02 01:00:00,
2013-02-01 20:01:00,18.0,7.9,30.15,SW,221,0.3,0.0,63,0.00,,,0.00,0,TxWx,2013-02-02 01:01:00,
2013-02-01 20:04:00,18.0,8.4,30.15,West,259,0.0,0.0,65,0.00,,,0.00,0,TxWx,2013-02-02 01:04:00,
2013-02-01 20:05:00,18.0,8.3,30.15,West,259,0.0,0.0,65,0.00,,,0.00,0,TxWx,2013-02-02 01:05:00,
2013-02-01 20:06:00,18.0,8.3,30.15,West,259,0.0,0.0,65,0.00,,,0.00,0,TxWx,2013-02-02 01:06:00,
2013-02-01 20:09:00,17.9,8.3,30.15,West,259,0.0,0.0,65,0.00,,,0.00,0,TxWx,2013-02-02 01:09:00,
2013-02-01 20:10:00,17.9,8.2,30.15,West,259,0.0,0.0,65,0.00,,,0.00,0,TxWx,2013-02-02 01:10:00,
2013-02-01 20:11:00,17.8,8.3,30.15,West,259,0.0,0.0,65,0.00,,,0.00,0,TxWx,2013-02-02 01:11:00,
2013-02-01 20:15:00,17.7,8.7,30.15,SW,228,0.0,0.0,67,0.00,,,0.00,0,TxWx,2013-02-02 01:15:00,
2013-02-01 20:17:00,17.6,8.7,30.15,SSW,206,0.0,0.0,67,0.00,,,0.00,0,TxWx,2013-02-02 01:17:00,
2013-02-01 20:20:00,17.6,8.0,30.15,West,262,0.0,0.0,65,0.00,,,0.00,0,TxWx,2013-02-02 01:20:00,
2013-02-01 20:22:00,17.6,8.3,30.15,SW,230,0.0,0.0,66,0.00,,,0.00,0,TxWx,2013-02-02 01:22:00,
2013-02-01 20:25:00,17.5,8.6,30.15,WSW,257,0.0,0.0,67,0.00,,,0.00,0,TxWx,2013-02-02 01:25:00,
2013-02-01 20:26:00,17.5,8.6,30.15,WSW,257,0.0,0.0,67,0.00,,,0.00,0,TxWx,2013-02-02 01:26:00,
2013-02-01 20:27:00,17.5,8.4,30.15,WSW,257,0.0,0.0,67,0.00,,,0.00,0,TxWx,2013-02-02 01:27:00,
2013-02-01 20:30:00,17.4,8.1,30.15,WSW,256,0.0,0.0,66,0.00,,,0.00,0,TxWx,2013-02-02 01:30:00,
2013-02-01 20:31:00,17.4,8.1,30.15,WSW,256,0.0,0.0,66,0.00,,,0.00,0,TxWx,2013-02-02 01:31:00,
2013-02-01 20:32:00,17.3,8.2,30.15,SSW,196,0.0,0.0,66,0.00,,,0.00,0,TxWx,2013-02-02 01:32:00,
2013-02-01 20:35:00,17.4,8.3,30.15,SW,217,0.3,0.0,67,0.00,,,0.00,0,TxWx,2013-02-02 01:35:00,
2013-02-01 20:36:00,17.4,8.3,30.15,SSW,208,0.7,0.0,67,0.00,,,0.00,0,TxWx,2013-02-02 01:36:00,
2013-02-01 20:37:00,17.4,9.3,30.15,South,189,0.0,0.0,69,0.00,,,0.00,0,TxWx,2013-02-02 01:37:00,
2013-02-01 20:40:00,17.6,8.6,30.15,SW,228,0.0,0.0,67,0.00,,,0.00,0,TxWx,2013-02-02 01:40:00,
2013-02-01 20:41:00,17.6,8.6,30.15,WSW,252,0.0,0.0,67,0.00,,,0.00,0,TxWx,2013-02-02 01:41:00,
2013-02-01 20:42:00,17.6,8.5,30.15,WSW,252,0.0,0.0,66,0.00,,,0.00,0,TxWx,2013-02-02 01:42:00,
2013-02-01 20:45:00,17.4,8.6,30.15,WSW,252,0.0,0.0,67,0.00,,,0.00,0,TxWx,2013-02-02 01:45:00,
2013-02-01 20:46:00,17.4,8.6,30.15,WSW,251,0.0,0.0,67,0.00,,,0.00,0,TxWx,2013-02-02 01:46:00,
2013-02-01 20:47:00,17.3,8.4,30.15,WSW,252,0.0,0.0,67,0.00,,,0.00,0,TxWx,2013-02-02 01:47:00,
2013-02-01 20:50:00,17.1,8.5,30.15,West,259,0.0,0.0,68,0.00,,,0.00,0,TxWx,2013-02-02 01:50:00,
2013-02-01 20:51:00,17.1,8.5,30.15,West,260,0.0,0.0,68,0.00,,,0.00,0,TxWx,2013-02-02 01:51:00,
2013-02-01 20:52:00,17.1,8.9,30.15,WSW,256,0.0,0.0,69,0.00,,,0.00,0,TxWx,2013-02-02 01:52:00,
2013-02-01 20:53:00,17.1,8.9,30.15,SW,216,0.0,0.0,69,0.00,,,0.00,0,TxWx,2013-02-02 01:53:00,
2013-02-01 20:56:00,17.2,9.4,30.15,SW,226,0.0,0.0,71,0.00,,,0.00,0,TxWx,2013-02-02 01:56:00,
2013-02-01 20:57:00,17.2,9.5,30.15,WSW,256,0.0,0.0,71,0.00,,,0.00,0,TxWx,2013-02-02 01:57:00,
2013-02-01 20:58:00,17.2,9.5,30.15,WSW,256,0.0,0.0,71,0.00,,,0.00,0,TxWx,2013-02-02 01:58:00,
2013-02-01 21:01:00,17.1,9.3,30.15,SW,214,0.0,0.0,70,0.00,,,0.00,0,TxWx,2013-02-02 02:01:00,
2013-02-01 21:02:00,17.1,9.4,30.15,WSW,238,0.0,0.0,71,0.00,,,0.00,0,TxWx,2013-02-02 02:02:00,
2013-02-01 21:03:00,17.1,9.4,30.15,WSW,239,0.0,0.0,71,0.00,,,0.00,0,TxWx,2013-02-02 02:03:00,
2013-02-01 21:06:00,17.1,9.6,30.15,WSW,241,0.0,0.0,71,0.00,,,0.00,0,TxWx,2013-02-02 02:06:00,
2013-02-01 21:07:00,16.9,9.2,30.15,West,259,0.0,0.0,71,0.00,,,0.00,0,TxWx,2013-02-02 02:07:00,
2013-02-01 21:08:00,16.9,9.2,30.15,West,259,0.0,0.0,71,0.00,,,0.00,0,TxWx,2013-02-02 02:08:00,
2013-02-01 21:11:00,16.9,9.0,30.15,West,259,0.0,0.0,70,0.00,,,0.00,0,TxWx,2013-02-02 02:11:00,
2013-02-01 21:12:00,16.9,9.0,30.15,West,259,0.0,0.0,70,0.00,,,0.00,0,TxWx,2013-02-02 02:12:00,
2013-02-01 21:13:00,16.8,9.1,30.15,WSW,256,0.0,0.0,71,0.00,,,0.00,0,TxWx,2013-02-02 02:13:00,
2013-02-01 21:16:00,16.7,9.6,30.15,WSW,257,0.0,0.0,73,0.00,,,0.00,0,TxWx,2013-02-02 02:16:00,
2013-02-01 21:17:00,16.7,9.6,30.15,WSW,256,0.0,0.0,73,0.00,,,0.00,0,TxWx,2013-02-02 02:17:00,
2013-02-01 21:18:00,16.7,9.5,30.16,WSW,257,0.0,0.0,72,0.00,,,0.00,0,TxWx,2013-02-02 02:18:00,
2013-02-01 21:21:00,16.7,9.5,30.16,West,263,0.0,0.0,72,0.00,,,0.00,0,TxWx,2013-02-02 02:21:00,
2013-02-01 21:22:00,16.7,9.5,30.16,West,263,0.0,0.0,72,0.00,,,0.00,0,TxWx,2013-02-02 02:22:00,
2013-02-01 21:23:00,16.6,9.4,30.16,West,263,0.0,0.0,72,0.00,,,0.00,0,TxWx,2013-02-02 02:23:00,
2013-02-01 21:26:00,16.6,9.2,30.16,West,260,0.0,0.0,72,0.00,,,0.00,0,TxWx,2013-02-02 02:26:00,
2013-02-01 21:27:00,16.6,9.2,30.16,West,260,0.0,0.0,72,0.00,,,0.00,0,TxWx,2013-02-02 02:27:00,
2013-02-01 21:28:00,16.7,9.0,30.16,WSW,255,0.0,0.0,71,0.00,,,0.00,0,TxWx,2013-02-02 02:28:00,
2013-02-01 21:29:00,16.7,9.0,30.16,WSW,256,0.0,0.0,71,0.00,,,0.00,0,TxWx,2013-02-02 02:29:00,
2013-02-01 21:31:00,16.7,9.2,30.16,WSW,256,0.0,0.0,71,0.00,,,0.00,0,TxWx,2013-02-02 02:31:00,
2013-02-01 21:32:00,16.7,9.2,30.16,WSW,255,0.0,0.0,71,0.00,,,0.00,0,TxWx,2013-02-02 02:32:00,
2013-02-01 21:33:00,16.8,8.8,30.16,SSW,211,0.0,0.0,70,0.00,,,0.00,0,TxWx,2013-02-02 02:33:00,
2013-02-01 21:34:00,16.8,8.8,30.16,SSW,211,0.0,0.0,70,0.00,,,0.00,0,TxWx,2013-02-02 02:34:00,
2013-02-01 21:36:00,16.9,8.7,30.15,SW,217,0.0,0.0,69,0.00,,,0.00,0,TxWx,2013-02-02 02:36:00,
2013-02-01 21:37:00,16.9,8.7,30.15,SW,217,0.0,0.0,69,0.00,,,0.00,0,TxWx,2013-02-02 02:37:00,
2013-02-01 21:39:00,16.9,9.1,30.15,SW,217,0.0,0.0,71,0.00,,,0.00,0,TxWx,2013-02-02 02:39:00,
2013-02-01 21:41:00,16.8,9.0,30.15,SW,217,0.0,0.0,70,0.00,,,0.00,0,TxWx,2013-02-02 02:41:00,
2013-02-01 21:42:00,16.8,9.0,30.15,SW,218,0.0,0.0,70,0.00,,,0.00,0,TxWx,2013-02-02 02:42:00,
2013-02-01 21:44:00,16.8,9.0,30.15,SW,218,0.0,0.0,70,0.00,,,0.00,0,TxWx,2013-02-02 02:44:00,
2013-02-01 21:47:00,16.7,9.7,30.15,SW,228,0.0,0.0,73,0.00,,,0.00,0,TxWx,2013-02-02 02:47:00,
2013-02-01 21:49:00,16.7,9.7,30.15,SW,220,0.0,0.0,73,0.00,,,0.00,0,TxWx,2013-02-02 02:49:00,
2013-02-01 21:52:00,16.6,9.1,30.16,West,273,0.0,0.0,72,0.00,,,0.00,0,TxWx,2013-02-02 02:52:00,
2013-02-01 21:54:00,16.5,8.8,30.16,West,273,0.0,0.0,71,0.00,,,0.00,0,TxWx,2013-02-02 02:54:00,
2013-02-01 21:57:00,16.4,8.9,30.16,West,273,0.0,0.0,71,0.00,,,0.00,0,TxWx,2013-02-02 02:57:00,
2013-02-01 21:59:00,16.3,8.9,30.16,West,273,0.0,0.0,72,0.00,,,0.00,0,TxWx,2013-02-02 02:59:00,
2013-02-01 22:02:00,16.1,9.0,30.16,West,273,0.0,0.0,73,0.00,,,0.00,0,TxWx,2013-02-02 03:02:00,
2013-02-01 22:04:00,16.0,9.1,30.16,West,273,0.0,0.0,73,0.00,,,0.00,0,TxWx,2013-02-02 03:04:00,
2013-02-01 22:07:00,16.0,9.0,30.16,West,273,0.0,0.0,73,0.00,,,0.00,0,TxWx,2013-02-02 03:07:00,
2013-02-01 22:09:00,16.0,8.8,30.16,West,273,0.0,0.0,72,0.00,,,0.00,0,TxWx,2013-02-02 03:09:00,
2013-02-01 22:12:00,16.0,8.7,30.16,West,273,0.0,0.0,72,0.00,,,0.00,0,TxWx,2013-02-02 03:12:00,
2013-02-01 22:13:00,16.0,8.7,30.16,West,273,0.0,0.0,72,0.00,,,0.00,0,TxWx,2013-02-02 03:13:00,
2013-02-01 22:14:00,16.0,9.0,30.16,West,273,0.0,0.0,73,0.00,,,0.00,0,TxWx,2013-02-02 03:14:00,
2013-02-01 22:15:00,16.0,9.0,30.16,West,273,0.0,0.0,73,0.00,,,0.00,0,TxWx,2013-02-02 03:15:00,
2013-02-01 22:18:00,16.0,9.2,30.16,West,273,0.0,0.0,74,0.00,,,0.00,0,TxWx,2013-02-02 03:18:00,
2013-02-01 22:19:00,16.0,9.3,30.15,West,273,0.0,0.0,74,0.00,,,0.00,0,TxWx,2013-02-02 03:19:00,
2013-02-01 22:20:00,16.0,9.3,30.15,West,273,0.0,0.0,74,0.00,,,0.00,0,TxWx,2013-02-02 03:20:00,
2013-02-01 22:23:00,16.0,9.1,30.15,West,273,0.0,0.0,73,0.00,,,0.00,0,TxWx,2013-02-02 03:23:00,
2013-02-01 22:24:00,16.0,9.4,30.15,West,273,0.0,0.0,74,0.00,,,0.00,0,TxWx,2013-02-02 03:24:00,
2013-02-01 22:25:00,16.0,9.4,30.15,West,273,0.0,0.0,74,0.00,,,0.00,0,TxWx,2013-02-02 03:25:00,
2013-02-01 22:28:00,15.9,9.3,30.16,West,272,0.0,0.0,74,0.00,,,0.00,0,TxWx,2013-02-02 03:28:00,
2013-02-01 22:29:00,15.9,9.2,30.16,West,273,0.0,0.0,74,0.00,,,0.00,0,TxWx,2013-02-02 03:29:00,
2013-02-01 22:30:00,15.9,9.2,30.16,West,273,0.0,0.0,74,0.00,,,0.00,0,TxWx,2013-02-02 03:30:00,
2013-02-01 22:33:00,15.8,9.0,30.16,West,273,0.0,0.0,74,0.00,,,0.00,0,TxWx,2013-02-02 03:33:00,
2013-02-01 22:34:00,15.8,8.9,30.15,West,273,0.0,0.0,73,0.00,,,0.00,0,TxWx,2013-02-02 03:34:00,
2013-02-01 22:35:00,15.7,8.9,30.15,West,273,0.0,0.0,73,0.00,,,0.00,0,TxWx,2013-02-02 03:35:00,
2013-02-01 22:38:00,15.7,8.8,30.15,NW,325,0.0,0.0,73,0.00,,,0.00,0,TxWx,2013-02-02 03:38:00,
2013-02-01 22:40:00,15.6,8.7,30.15,NW,325,0.0,0.0,73,0.00,,,0.00,0,TxWx,2013-02-02 03:40:00,
2013-02-01 22:41:00,15.6,8.6,30.15,NW,325,0.0,0.0,73,0.00,,,0.00,0,TxWx,2013-02-02 03:41:00,
2013-02-01 22:43:00,15.6,8.5,30.15,NW,325,0.0,0.0,73,0.00,,,0.00,0,TxWx,2013-02-02 03:43:00,
2013-02-01 22:44:00,15.6,8.5,30.15,NW,325,0.0,0.0,73,0.00,,,0.00,0,TxWx,2013-02-02 03:44:00,
2013-02-01 22:45:00,15.6,8.5,30.15,NW,325,0.0,0.0,73,0.00,,,0.00,0,TxWx,2013-02-02 03:45:00,
2013-02-01 22:46:00,15.6,8.5,30.15,NW,325,0.0,0.0,72,0.00,,,0.00,0,TxWx,2013-02-02 03:46:00,
2013-02-01 22:49:00,15.6,8.5,30.15,NW,325,0.0,0.0,72,0.00,,,0.00,0,TxWx,2013-02-02 03:49:00,
2013-02-01 22:50:00,15.7,8.8,30.15,NW,325,0.0,0.0,73,0.00,,,0.00,0,TxWx,2013-02-02 03:50:00,
2013-02-01 22:51:00,15.7,8.8,30.15,NW,325,0.0,0.0,73,0.00,,,0.00,0,TxWx,2013-02-02 03:51:00,
2013-02-01 22:54:00,15.6,8.8,30.15,NW,325,0.0,0.0,73,0.00,,,0.00,0,TxWx,2013-02-02 03:54:00,
2013-02-01 22:56:00,15.7,8.8,30.15,NW,325,0.0,0.0,73,0.00,,,0.00,0,TxWx,2013-02-02 03:56:00,
2013-02-01 22:59:00,15.6,8.7,30.16,NW,325,0.0,0.0,73,0.00,,,0.00,0,TxWx,2013-02-02 03:59:00,
2013-02-01 23:01:00,15.5,8.7,30.16,NW,325,0.0,0.0,73,0.00,,,0.00,0,TxWx,2013-02-02 04:01:00,
2013-02-01 23:04:00,15.4,8.7,30.16,NW,325,0.0,0.0,74,0.00,,,0.00,0,TxWx,2013-02-02 04:04:00,
2013-02-01 23:06:00,15.4,8.7,30.16,NW,325,0.0,0.0,74,0.00,,,0.00,0,TxWx,2013-02-02 04:06:00,
2013-02-01 23:09:00,15.4,8.8,30.16,NW,325,0.0,0.0,74,0.00,,,0.00,0,TxWx,2013-02-02 04:09:00,
2013-02-01 23:11:00,15.4,8.9,30.16,NW,325,0.0,0.0,75,0.00,,,0.00,0,TxWx,2013-02-02 04:11:00,
2013-02-01 23:12:00,15.4,8.9,30.16,NW,325,0.0,0.0,75,0.00,,,0.00,0,TxWx,2013-02-02 04:12:00,
2013-02-01 23:14:00,15.3,8.9,30.16,NW,325,0.0,0.0,75,0.00,,,0.00,0,TxWx,2013-02-02 04:14:00,
2013-02-01 23:15:00,15.3,8.9,30.16,NW,325,0.0,0.0,75,0.00,,,0.00,0,TxWx,2013-02-02 04:15:00,
2013-02-01 23:16:00,15.4,8.8,30.16,NW,325,0.0,0.0,74,0.00,,,0.00,0,TxWx,2013-02-02 04:16:00,
2013-02-01 23:17:00,15.4,8.8,30.16,NW,325,0.0,0.0,74,0.00,,,0.00,0,TxWx,2013-02-02 04:17:00,
2013-02-01 23:20:00,15.4,8.9,30.17,NW,323,0.0,0.0,75,0.00,,,0.00,0,TxWx,2013-02-02 04:20:00,
2013-02-01 23:21:00,15.3,9.0,30.17,WNW,302,0.0,0.0,75,0.00,,,0.00,0,TxWx,2013-02-02 04:21:00,
2013-02-01 23:22:00,15.4,9.0,30.17,WNW,302,0.0,0.0,75,0.00,,,0.00,0,TxWx,2013-02-02 04:22:00,
2013-02-01 23:25:00,15.4,8.9,30.17,WNW,301,0.0,0.0,74,0.00,,,0.00,0,TxWx,2013-02-02 04:25:00,
2013-02-01 23:27:00,15.3,8.9,30.17,WNW,301,0.0,0.0,75,0.00,,,0.00,0,TxWx,2013-02-02 04:27:00,
2013-02-01 23:30:00,15.3,8.7,30.16,WNW,301,0.0,0.0,74,0.00,,,0.00,0,TxWx,2013-02-02 04:30:00,
2013-02-01 23:32:00,15.3,8.9,30.16,WNW,301,0.0,0.0,75,0.00,,,0.00,0,TxWx,2013-02-02 04:32:00,
2013-02-01 23:35:00,15.2,8.8,30.16,NW,307,0.0,0.0,75,0.00,,,0.00,0,TxWx,2013-02-02 04:35:00,
2013-02-01 23:37:00,15.1,8.7,30.16,NW,308,0.0,0.0,75,0.00,,,0.00,0,TxWx,2013-02-02 04:37:00,
2013-02-01 23:38:00,15.1,8.7,30.16,NW,308,0.0,0.0,75,0.00,,,0.00,0,TxWx,2013-02-02 04:38:00,
2013-02-01 23:40:00,15.0,8.6,30.16,NW,308,0.0,0.0,75,0.00,,,0.00,0,TxWx,2013-02-02 04:40:00,
2013-02-01 23:42:00,15.0,8.7,30.17,NW,308,0.0,0.0,75,0.00,,,0.00,0,TxWx,2013-02-02 04:42:00,
2013-02-01 23:43:00,15.0,8.7,30.17,NW,308,0.0,0.0,75,0.00,,,0.00,0,TxWx,2013-02-02 04:43:00,
2013-02-01 23:45:00,14.9,8.8,30.17,NW,308,0.0,0.0,76,0.00,,,0.00,0,TxWx,2013-02-02 04:45:00,
2013-02-01 23:46:00,14.9,8.8,30.17,NW,308,0.0,0.0,76,0.00,,,0.00,0,TxWx,2013-02-02 04:46:00,
2013-02-01 23:47:00,15.0,8.9,30.17,NW,308,0.0,0.0,76,0.00,,,0.00,0,TxWx,2013-02-02 04:47:00,
2013-02-01 23:48:00,15.0,8.9,30.17,NW,308,0.0,0.0,76,0.00,,,0.00,0,TxWx,2013-02-02 04:48:00,
2013-02-01 23:50:00,15.0,9.0,30.17,NW,305,0.0,0.0,76,0.00,,,0.00,0,TxWx,2013-02-02 04:50:00,
2013-02-01 23:51:00,15.0,9.0,30.17,NW,305,0.0,0.0,76,0.00,,,0.00,0,TxWx,2013-02-02 04:51:00,
2013-02-01 23:52:00,15.1,9.0,30.17,NW,305,0.0,0.0,76,0.00,,,0.00,0,TxWx,2013-02-02 04:52:00,
2013-02-01 23:53:00,15.0,8.9,30.17,NW,305,0.0,0.0,76,0.00,,,0.00,0,TxWx,2013-02-02 04:53:00,
2013-02-01 23:55:00,15.0,8.9,30.17,NW,305,0.0,0.0,76,0.00,,,0.00,0,TxWx,2013-02-02 04:55:00,
2013-02-01 23:56:00,15.0,8.9,30.17,NW,305,0.0,0.0,76,0.00,,,0.00,0,TxWx,2013-02-02 04:56:00,
2013-02-01 23:57:00,15.0,8.9,30.17,West,281,0.0,0.0,76,0.00,,,0.00,0,TxWx,2013-02-02 04:57:00,
2013-02-01 23:58:00,15.0,8.9,30.17,WNW,282,0.0,0.0,76,0.00,,,0.00,0,TxWx,2013-02-02 04:58:00,